GFSCGP_500_rhum_024.txt.gz
RH
47 51 60 54 92 81 82 73 74 64 67 86 87 79 37 53 66 73 71 24 17 20 17 18 17 16 15 12 21 36 46 39 32 22 20 29 24 30 19 18 18 18 18 18
51 64 70 55 86 100 83 74 81 78 78 86 68 55 46 38 27 46 68 59 36 22 36 18 18 13 12 16 24 33 40 41 34 22 18 22 21 21 20 20 19 18 19 18
63 53 66 61 95 99 98 95 93 67 53 41 39 39 58 71 47 66 55 65 52 30 21 24 24 17 14 14 20 22 49 46 48 27 19 22 25 23 21 25 34 22 20 20
58 48 46 54 64 79 98 100 86 70 53 70 77 64 54 73 71 76 70 96 55 24 25 20 18 25 29 14 14 36 56 50 63 42 22 22 21 21 25 40 60 49 52 53
54 56 54 63 69 77 98 90 77 64 69 62 75 63 61 62 68 75 75 79 76 42 27 30 33 37 42 59 25 30 46 39 50 60 50 43 36 38 35 48 55 62 77 76
44 58 59 81 69 63 77 78 70 63 54 50 48 54 53 55 69 81 74 63 75 70 57 42 42 48 92 87 62 39 62 75 61 76 91 50 29 31 41 55 71 77 89 96
49 54 61 77 64 58 70 65 70 68 57 58 58 50 41 53 62 60 69 60 50 45 34 65 66 85 88 71 64 55 75 72 49 91 89 75 60 57 60 64 79 92 100 100
43 66 65 71 78 84 76 65 65 71 61 69 66 49 47 52 50 64 61 74 54 42 58 53 48 44 47 65 58 49 47 55 64 87 98 79 67 60 54 84 97 100 100 100
32 66 89 88 94 92 73 65 61 58 53 54 55 40 33 37 41 55 49 58 57 30 37 18 22 50 84 91 88 39 30 24 28 40 54 52 51 67 72 97 100 99 97 92
34 65 93 100 100 91 94 77 71 60 50 40 42 44 42 38 59 54 66 64 67 52 25 18 19 18 17 24 19 18 19 19 19 25 50 74 71 74 84 94 94 99 92 85
28 53 96 97 87 99 96 80 72 60 67 58 45 36 28 41 45 39 26 30 63 68 42 21 20 19 19 19 19 20 20 23 38 57 80 75 87 87 90 94 100 94 85 79
25 49 85 88 87 97 88 78 68 64 60 62 67 29 17 25 29 24 20 20 60 79 55 32 25 21 20 19 20 20 25 50 71 67 73 88 95 97 100 100 100 98 99 84
40 43 76 81 74 60 70 77 73 60 49 46 66 34 14 20 27 19 22 16 16 21 27 24 22 21 22 21 21 42 76 79 64 68 80 75 85 96 99 88 89 48 49 53
47 51 50 45 43 58 75 58 62 51 50 41 29 24 34 22 15 18 15 18 15 21 20 22 24 26 26 21 33 62 79 61 48 52 47 74 74 61 46 46 44 45 44 45
45 38 39 42 56 48 55 60 63 48 40 33 26 19 17 14 50 30 22 23 25 23 21 20 18 18 18 21 31 36 26 14 10 7 28 51 40 32 45 49 44 34 51 89
42 46 46 83 86 71 74 47 22 16 18 20 14 7 10 11 39 60 34 30 26 22 21 19 20 20 18 15 10 9 6 4 4 4 6 12 23 35 43 43 36 68 100 84
48 42 63 80 100 95 49 23 27 22 17 10 7 10 13 12 14 27 49 43 33 27 25 23 22 20 16 10 8 5 5 4 5 6 11 22 37 43 44 42 80 95 84 79
76 85 44 72 79 58 26 14 9 9 9 10 11 10 10 11 13 15 26 30 31 27 23 20 18 13 10 7 6 6 5 6 7 10 17 28 42 46 49 65 78 78 75 98
64 93 84 48 30 21 10 15 29 46 13 11 12 13 16 14 14 18 27 32 28 24 23 20 14 10 6 7 8 8 9 9 9 13 22 37 49 54 60 74 78 74 73 93
30 85 86 48 37 16 9 13 28 76 48 41 33 27 24 18 15 27 31 29 29 27 20 13 9 9 10 10 12 14 14 12 13 21 35 48 52 59 74 81 77 74 67 56
37 90 73 66 41 19 13 10 17 27 32 48 48 38 28 20 20 25 30 31 24 15 12 11 12 13 16 24 27 22 18 16 23 39 51 56 63 77 83 82 83 82 71 58
36 56 56 66 27 12 12 12 18 27 29 29 29 31 30 25 24 28 19 15 14 15 16 20 26 33 37 37 33 24 19 25 39 53 62 72 85 92 95 95 90 83 74 59
29 37 36 29 29 11 10 14 23 25 29 27 26 26 22 16 15 16 16 17 18 18 17 24 35 41 44 43 33 23 26 40 55 64 78 93 100 100 96 93 88 84 70 42
25 25 31 30 24 11 13 14 15 15 15 15 15 15 15 15 15 16 16 15 14 15 19 30 46 56 56 45 32 29 40 55 66 73 79 83 87 90 86 85 86 73 38 17
40 36 40 29 11 13 17 17 17 21 21 19 18 18 18 18 17 16 15 15 16 20 35 48 58 63 57 42 34 44 60 67 71 74 77 79 76 74 82 88 70 35 16 12
61 48 55 31 17 17 17 20 24 25 23 21 20 21 20 18 17 17 16 16 19 24 38 51 63 62 51 43 52 67 74 77 80 77 73 75 84 91 87 64 38 18 12 12

GFSCGP_500_rhum_027.txt.gz
RH
35 40 49 47 32 62 71 90 91 82 73 85 90 84 58 69 60 72 56 19 18 22 24 26 32 42 52 41 46 41 35 31 30 26 22 40 34 21 26 29 19 17 18 20
34 40 50 49 37 67 79 84 77 70 66 76 96 86 52 42 55 50 68 49 24 23 24 20 20 24 19 22 32 41 51 43 36 28 24 45 37 32 63 28 19 21 22 23
25 43 43 47 59 74 84 87 75 67 83 98 79 69 58 58 74 71 66 75 62 26 29 14 18 17 17 19 23 28 44 63 58 51 27 21 26 60 50 25 22 26 46 52
26 41 38 49 58 94 80 84 85 78 83 69 50 51 60 68 68 99 91 98 51 29 22 22 22 19 26 23 18 21 37 36 50 58 44 22 24 52 24 20 23 34 42 54
27 39 38 41 55 76 84 86 80 85 79 48 53 52 61 65 72 92 100 100 100 35 19 22 21 18 19 25 26 33 27 46 52 46 61 54 26 34 48 43 35 42 52 65
22 27 50 50 57 63 71 88 86 78 47 55 58 59 58 59 75 83 94 96 97 98 52 23 20 18 24 32 37 58 48 38 46 49 78 83 43 67 42 49 51 57 71 89
23 19 46 59 65 63 68 73 73 72 59 59 63 57 53 55 59 64 72 82 89 86 88 62 43 40 38 34 63 66 52 43 67 71 43 86 92 95 96 93 78 74 80 97
18 20 32 47 54 63 69 80 68 63 55 56 52 45 45 54 52 42 48 78 73 73 59 63 68 76 72 71 78 61 55 56 58 61 79 72 62 86 92 90 97 100 96 100
19 19 47 59 61 63 75 81 79 68 60 53 50 46 43 41 38 40 50 52 55 71 46 47 52 51 48 42 48 84 67 75 45 32 26 23 48 84 98 97 98 96 94 100
19 24 54 78 81 77 84 93 82 66 62 62 49 37 32 40 45 43 52 63 48 60 70 56 22 23 34 55 75 97 80 33 22 21 24 57 95 97 94 92 100 99 99 100
12 18 42 71 84 86 96 93 90 78 71 60 44 49 58 34 26 40 45 44 52 60 50 63 28 20 20 19 19 39 54 25 22 25 56 93 93 93 90 93 89 96 100 100
15 20 27 55 92 96 89 80 92 97 75 65 52 40 59 35 17 33 40 38 27 19 48 82 55 40 25 24 21 20 20 21 29 87 95 90 85 77 73 76 95 99 100 100
21 21 23 40 70 82 75 77 94 96 80 56 54 42 58 28 17 20 28 23 20 20 32 70 70 48 37 29 27 26 25 31 53 75 94 70 52 42 59 82 66 69 58 65
36 27 26 26 37 79 77 66 80 96 74 58 46 39 32 24 27 26 16 11 12 18 20 22 28 31 30 25 27 28 24 24 48 59 43 22 24 24 33 43 37 31 37 41
51 33 32 37 48 65 61 62 68 73 60 44 46 31 29 20 21 15 12 23 17 18 26 26 28 29 28 25 22 24 28 31 22 14 7 5 6 14 14 16 25 35 39 42
72 40 37 36 42 44 43 47 43 42 58 65 27 15 21 18 9 12 12 14 27 24 28 30 26 21 19 21 24 25 23 14 8 6 6 7 8 8 10 15 24 37 44 50
94 58 46 40 47 50 36 44 55 76 53 28 15 17 15 10 10 11 11 12 15 34 35 30 29 29 29 26 25 18 10 7 8 9 10 12 12 11 12 18 32 46 54 64
86 80 82 62 50 40 34 79 79 58 24 15 20 13 9 10 10 10 11 12 15 21 30 32 29 28 28 23 14 8 10 11 12 15 20 21 19 15 16 27 46 54 60 75
67 55 62 68 57 38 24 47 42 32 15 19 59 57 13 14 15 16 16 14 15 20 30 32 31 28 21 12 10 12 14 18 25 30 31 29 21 17 22 38 52 59 71 84
82 94 89 63 58 37 33 34 33 20 12 31 61 65 57 39 27 25 20 15 16 26 30 30 26 14 12 14 17 23 23 26 33 39 37 27 21 24 35 48 61 74 93 100
74 81 68 35 36 39 42 43 31 16 12 13 19 23 39 50 46 35 24 17 24 34 27 14 13 15 16 17 16 17 27 40 49 47 35 26 24 34 51 62 74 84 89 96
61 66 63 38 47 53 50 49 28 13 10 15 20 25 26 26 29 30 26 28 22 14 14 15 14 12 13 14 17 25 38 47 53 46 33 30 40 56 65 70 75 78 79 75
82 74 76 64 36 47 41 28 23 10 12 16 18 24 23 24 24 19 16 16 16 15 14 13 13 14 15 18 24 35 48 56 53 43 39 43 55 64 70 72 70 71 70 69
72 77 67 71 47 36 27 33 13 13 13 13 14 14 15 15 15 16 16 16 16 15 16 16 16 18 21 28 37 46 53 55 51 46 47 55 63 70 75 73 74 80 79 79
64 70 88 88 38 24 29 26 12 13 14 15 18 19 18 18 18 18 18 18 20 20 19 19 22 26 32 47 62 67 58 56 55 55 61 65 71 79 88 90 85 83 87 87
62 62 76 89 42 33 35 24 13 15 17 17 22 24 23 23 21 20 22 24 25 25 25 27 31 35 44 57 67 60 58 65 67 68 70 72 78 83 84 81 86 92 92 87

GFSCGP_500_rhum_033.txt.gz
RH
15 12 16 29 92 97 99 97 100 95 96 70 98 80 98 58 56 54 41 47 16 19 20 25 26 31 29 29 27 19 21 18 28 52 20 20 28 50 78 93 90 73 31 20
24 13 14 23 48 28 38 96 90 99 72 56 91 99 95 67 57 63 53 28 20 17 18 21 24 32 29 31 33 29 26 25 24 27 26 23 22 27 38 68 80 51 29 21
24 18 13 22 25 19 76 97 98 92 96 55 54 92 92 86 44 48 47 57 28 25 21 18 21 29 35 30 20 19 22 26 29 32 36 34 26 28 40 34 48 50 40 34
38 18 14 22 39 36 100 64 98 72 58 100 86 98 96 100 54 26 40 55 48 34 23 29 17 16 14 12 13 13 12 12 16 22 30 42 52 40 32 44 44 66 77 70
58 22 17 21 43 57 99 96 83 100 100 100 87 89 82 90 89 52 38 56 34 44 49 20 21 17 16 14 14 16 18 18 18 22 27 42 48 47 55 34 22 30 55 75
78 27 17 21 45 46 79 51 65 99 98 99 97 86 92 100 97 100 98 58 64 68 67 57 34 19 18 18 19 21 20 21 26 48 68 46 51 64 73 81 75 73 73 83
95 27 21 20 64 43 43 67 100 100 98 82 100 68 99 94 100 72 79 93 86 72 73 72 77 81 94 76 36 33 35 42 42 43 63 58 51 81 86 80 85 80 76 85
73 33 21 18 19 83 55 82 93 98 96 99 88 47 61 98 88 70 63 65 67 78 59 67 81 92 87 68 62 66 68 71 70 88 64 66 52 62 58 55 58 68 97 97
92 60 66 28 24 27 89 97 62 91 75 76 100 86 72 66 59 56 54 50 50 37 43 70 84 85 92 67 58 55 64 65 64 61 71 95 57 61 37 24 26 69 94 97
99 100 97 51 42 19 31 94 91 93 98 80 95 95 99 71 68 41 34 35 36 40 43 71 92 96 97 87 62 36 49 63 65 62 75 98 68 35 23 23 54 87 96 90
94 56 100 69 28 34 18 26 51 99 100 97 98 98 89 97 56 54 55 43 33 40 56 67 76 88 85 80 68 34 27 29 34 28 33 31 58 40 45 46 40 47 63 54
92 67 50 79 40 22 99 90 99 100 100 96 85 88 97 82 68 54 50 45 49 19 38 47 58 82 80 78 71 47 25 22 21 21 22 22 44 30 35 61 49 72 66 54
88 43 45 97 95 23 23 86 98 100 100 82 97 65 100 84 68 62 58 42 42 28 15 25 35 36 34 39 75 86 67 57 51 40 32 28 27 36 40 37 46 46 28 10
56 43 38 35 39 91 29 23 98 98 100 67 86 98 99 100 88 86 70 51 32 22 18 17 18 21 22 36 63 99 95 77 60 48 36 28 33 53 58 43 25 13 7 11
51 58 48 41 61 100 98 71 78 100 100 99 78 100 98 96 100 69 60 54 37 22 22 11 15 22 21 26 30 32 26 29 34 39 46 64 74 55 29 19 9 10 17 28
63 65 61 45 43 94 94 100 97 100 97 94 100 95 100 100 95 46 47 30 21 20 9 10 12 19 25 28 32 32 32 41 64 63 58 44 31 24 11 10 15 23 25 27
82 84 81 42 30 57 65 35 88 91 89 94 69 49 85 88 98 40 25 15 16 18 12 9 12 12 13 25 52 51 59 58 49 40 33 30 17 11 14 21 23 24 27 34
100 92 90 45 33 32 18 28 37 32 35 42 37 36 47 93 62 17 13 14 14 9 9 10 12 13 13 18 65 77 59 49 43 38 32 15 14 20 22 21 23 25 32 47
97 100 83 44 40 29 25 29 34 36 27 46 39 61 68 76 10 13 18 21 50 49 12 11 12 15 15 18 21 28 41 43 38 23 14 18 19 17 17 18 20 28 37 43
96 97 85 42 61 32 26 28 40 41 31 47 53 70 32 16 12 14 15 25 36 52 22 20 18 19 17 20 35 39 38 23 15 18 16 14 15 16 17 22 30 46 52 53
93 93 87 78 55 29 30 74 100 40 45 98 81 39 20 14 10 10 13 16 20 26 49 47 35 23 20 31 36 21 16 17 16 15 16 17 20 23 26 32 43 50 55 54
100 96 87 87 80 40 46 41 56 38 55 58 42 30 23 17 9 10 13 18 19 21 25 35 28 21 28 22 16 16 15 16 18 19 23 26 29 33 35 40 42 50 63 69
100 98 100 83 60 66 68 78 78 41 43 40 36 32 30 17 9 11 12 15 17 19 24 25 22 16 15 15 16 18 20 22 24 26 29 32 36 39 39 44 56 65 64 58
99 100 95 97 74 68 62 75 100 76 50 64 53 47 28 17 10 11 11 13 14 14 13 14 14 15 16 17 19 20 20 20 24 29 36 40 44 44 51 62 65 62 57 55
98 94 95 70 80 91 81 92 98 83 62 29 31 37 24 16 10 12 12 13 13 14 15 16 17 18 19 20 20 19 20 25 39 50 54 53 53 57 64 65 65 61 56 55
93 94 98 93 98 100 99 100 95 93 84 60 35 32 23 17 12 14 15 17 19 20 22 24 25 25 23 23 23 27 37 58 71 70 55 52 67 69 61 59 67 69 64 66

GFSCGP_500_rhum_036.txt.gz
RH
53 47 32 10 9 18 95 90 95 99 92 88 64 94 70 92 70 62 44 59 16 11 15 39 23 21 29 30 26 22 21 21 35 52 28 14 20 29 41 72 82 82 91 56
57 51 41 13 11 17 49 82 96 93 64 65 58 100 90 96 66 61 41 38 27 12 8 15 15 14 23 23 20 24 26 23 21 24 22 22 19 18 16 21 48 83 97 42
67 43 40 14 11 20 14 16 81 100 100 76 52 54 91 100 54 54 29 24 35 32 12 10 10 11 12 16 15 11 10 11 10 11 11 12 17 20 21 29 30 63 93 42
72 43 45 34 12 23 23 41 82 96 83 65 70 74 95 100 81 52 36 28 24 28 29 17 17 12 10 10 9 9 9 11 12 14 14 16 21 28 35 40 28 37 36 52
62 48 54 24 16 22 60 80 79 91 100 86 83 88 100 89 80 66 46 44 41 43 34 39 19 17 16 15 14 15 15 15 16 15 14 28 43 31 32 35 44 48 29 24
80 58 56 40 17 25 81 53 91 96 58 66 58 100 99 65 74 100 96 91 70 67 59 49 54 64 64 47 24 18 19 28 28 44 32 35 41 46 39 56 66 66 73 89
70 69 68 68 20 36 71 86 79 89 97 53 91 99 77 65 93 89 98 88 92 59 46 55 52 57 66 71 82 70 58 57 53 52 54 66 87 64 51 64 80 64 90 85
73 63 70 66 20 81 57 42 66 96 94 96 90 77 96 62 55 97 66 51 44 44 40 37 36 27 41 47 60 58 51 43 41 47 50 45 97 52 72 65 74 86 96 48
75 72 84 64 35 28 98 44 68 86 98 92 97 92 99 82 59 68 50 48 49 55 44 36 91 37 37 50 52 64 60 44 41 38 43 42 70 81 88 98 95 48 68 54
84 92 92 97 78 41 24 94 95 76 98 85 70 95 99 84 99 70 42 43 41 39 36 33 36 39 64 85 70 66 55 36 43 35 23 34 30 45 94 97 80 100 87 56
86 84 91 98 97 71 48 41 70 100 96 77 98 86 85 75 100 91 57 37 35 35 32 26 32 52 66 73 97 97 53 90 62 41 28 71 61 90 93 48 76 77 61 64
84 72 85 86 100 84 75 66 41 79 94 97 90 61 74 71 99 92 55 53 42 37 35 38 25 43 52 70 87 82 64 52 66 46 53 97 84 87 69 100 48 38 69 60
80 76 88 93 98 99 72 37 100 85 88 78 100 58 86 100 85 80 70 60 52 41 44 30 26 17 31 44 63 83 74 52 48 63 65 92 71 62 100 54 44 56 67 50
100 92 71 76 80 98 80 68 98 99 88 79 71 47 78 81 78 73 80 83 64 39 41 32 22 14 14 18 23 28 36 43 56 81 75 72 71 82 62 48 55 65 47 28
98 71 79 100 95 93 95 85 68 78 99 99 74 98 66 91 70 90 98 78 95 48 39 35 26 16 16 10 12 12 12 20 39 56 44 33 46 50 76 70 59 34 25 12
97 89 86 96 100 83 71 97 100 84 48 94 100 97 89 95 100 87 82 89 55 47 42 25 20 16 9 7 8 10 19 24 30 33 36 46 64 77 66 38 30 17 11 19
97 81 98 89 92 72 72 65 100 100 100 100 84 89 91 100 89 95 83 46 37 39 27 17 15 15 18 12 10 11 15 29 38 51 72 76 57 36 29 27 13 13 16 13
93 82 89 98 94 60 58 65 68 91 88 89 90 98 100 79 79 79 85 95 26 13 14 22 30 13 8 8 11 13 13 19 42 85 47 42 40 38 29 15 20 20 16 15
100 96 81 70 77 67 70 55 51 62 41 56 69 78 85 76 52 49 40 34 16 15 16 18 23 54 39 12 11 13 16 16 18 22 33 41 38 19 18 22 17 17 19 21
100 94 88 89 73 65 68 56 47 57 54 53 98 95 86 78 78 37 16 15 14 13 14 18 22 47 25 18 17 17 18 17 22 36 38 26 18 23 18 18 20 22 26 30
100 100 82 89 90 73 75 63 77 84 52 61 100 79 74 98 61 17 17 13 10 10 13 15 17 19 43 46 35 25 19 21 34 34 18 19 17 19 21 22 23 27 34 40
100 100 92 83 93 87 88 96 66 73 77 100 82 100 76 57 38 28 14 14 9 9 12 14 15 18 22 36 33 22 23 29 19 18 18 20 20 19 19 24 36 44 49 47
97 100 100 89 80 90 100 94 68 85 94 94 75 66 56 42 28 22 25 22 10 10 11 11 13 16 21 25 24 20 16 17 17 18 20 19 18 18 22 42 57 59 52 49
100 100 96 97 92 97 82 91 85 100 99 96 98 65 73 40 37 41 33 20 10 10 10 11 14 15 14 14 14 16 17 18 19 20 20 20 20 24 37 70 70 54 58 77
98 99 100 85 93 95 94 100 88 91 100 100 100 78 37 36 41 63 45 21 11 11 11 13 14 14 14 16 17 18 20 22 22 22 22 24 31 50 74 79 66 71 80 84
98 99 100 100 100 99 96 89 84 88 91 99 99 81 74 63 40 34 32 24 14 12 13 15 16 17 19 21 22 25 26 25 23 24 32 45 67 88 82 62 61 78 87 91

GFSCGP_500_rhum_039.txt.gz
RH
70 53 48 46 25 8 6 12 56 83 95 89 79 63 53 53 60 56 31 26 23 20 9 28 16 19 28 34 22 23 25 28 56 25 12 11 12 23 48 67 80 85 77 69
64 61 48 48 26 9 6 7 52 95 85 84 93 79 56 40 64 64 32 26 26 34 11 9 13 13 12 15 16 19 19 19 21 24 15 15 17 15 13 13 32 74 89 98
63 72 59 47 37 14 7 8 29 80 85 98 88 72 71 75 78 86 58 32 24 30 28 10 9 8 9 12 11 9 8 8 9 10 10 11 11 11 12 14 22 47 64 96
50 80 67 60 54 18 9 11 10 73 100 75 94 99 65 71 98 87 57 51 37 22 39 15 18 12 10 9 9 10 11 14 13 12 12 12 20 21 24 23 29 40 36 32
56 77 70 59 66 22 17 24 21 20 56 53 58 90 95 70 63 73 71 82 66 53 26 36 20 20 15 12 12 12 13 16 20 23 18 12 14 28 36 32 26 29 48 40
53 82 77 62 55 26 18 23 58 57 71 62 62 90 96 74 79 71 58 93 87 58 44 29 31 45 47 44 35 20 22 35 24 14 17 22 23 42 47 34 37 40 48 69
59 67 76 72 61 48 19 24 55 42 61 29 39 72 63 95 100 99 92 81 72 66 43 31 31 31 35 39 40 37 41 40 32 25 21 17 16 43 73 35 50 59 74 93
70 70 82 71 67 72 27 21 25 33 46 46 66 78 90 95 95 89 62 83 53 33 38 33 27 32 34 27 26 37 42 46 37 28 30 27 24 20 27 32 72 93 98 98
65 59 87 83 64 80 42 44 46 64 56 68 54 75 86 88 77 92 60 66 50 43 29 29 25 23 76 80 26 28 48 60 50 33 35 38 28 21 28 39 77 98 85 96
58 76 91 91 81 79 61 41 72 62 91 57 43 81 91 96 78 93 91 62 52 35 30 26 23 31 35 26 23 34 70 89 84 50 35 47 39 24 28 34 58 98 84 80
67 80 84 95 89 90 63 39 52 49 97 67 38 53 71 80 97 99 94 76 51 40 33 28 33 33 37 29 17 32 44 71 77 92 73 84 72 48 52 70 96 100 97 81
77 87 90 85 95 100 67 78 54 33 35 81 92 72 50 95 100 100 99 62 65 46 36 45 42 30 24 35 37 31 25 32 83 100 74 78 73 100 98 92 96 96 98 87
96 75 92 95 89 93 94 88 64 70 66 50 96 38 81 80 99 93 99 99 87 60 61 40 50 46 32 19 12 14 24 41 98 93 67 92 81 58 76 44 91 94 71 42
100 87 75 46 65 88 88 76 66 83 61 41 45 30 57 65 88 83 84 72 73 60 67 54 40 40 29 20 13 10 9 39 66 56 72 61 22 28 36 62 64 62 50 71
100 93 72 68 84 92 96 98 88 72 54 50 55 85 75 76 83 98 96 100 88 89 97 61 36 30 33 25 17 17 13 13 21 11 12 13 29 33 37 57 49 41 76 56
100 83 85 74 93 91 97 90 98 79 78 64 45 49 89 69 84 99 92 64 88 68 52 45 51 32 26 20 17 14 9 7 7 8 15 24 23 20 29 47 76 71 43 33
100 87 98 68 91 100 98 60 78 83 86 97 57 34 48 90 90 92 76 85 77 72 62 56 54 38 27 14 14 19 18 11 9 10 10 12 18 37 47 41 35 30 29 18
98 98 78 73 100 99 41 60 80 69 94 83 78 84 83 95 98 99 77 97 88 30 29 51 38 16 12 25 36 43 18 8 9 10 11 25 24 23 27 27 30 28 15 16
100 100 97 89 80 80 60 55 79 87 70 75 57 53 69 79 96 87 85 73 76 53 38 36 14 14 15 17 19 38 45 28 11 13 30 17 15 18 28 30 20 15 14 16
99 100 99 100 98 77 53 76 86 80 54 65 62 59 74 81 92 90 97 51 40 40 46 22 13 11 12 14 16 18 37 31 24 22 20 20 18 29 32 19 16 16 18 17
96 100 100 100 95 59 65 92 96 78 55 77 79 62 40 63 64 82 62 59 46 52 30 15 13 10 12 14 16 18 22 38 43 36 26 19 22 30 18 16 17 19 19 17
96 97 100 100 89 70 85 99 97 70 81 95 88 51 48 66 77 82 46 85 73 57 30 15 15 9 11 13 14 15 17 29 35 27 21 26 21 16 16 18 19 18 19 20
80 86 100 100 92 94 100 96 94 92 100 100 90 70 91 75 89 70 70 44 38 34 21 22 22 12 10 11 12 14 20 25 24 25 24 17 18 18 20 21 21 22 24 33
76 73 100 98 100 100 100 94 100 100 97 84 100 78 92 83 74 76 59 42 38 31 32 34 23 11 10 10 11 13 16 16 16 17 18 19 20 22 24 24 26 36 55 76
52 79 95 97 100 97 64 71 94 97 100 78 78 91 90 69 65 57 81 53 49 50 52 55 28 13 10 11 12 13 13 14 16 19 22 23 24 27 30 32 49 79 87 100
36 54 80 98 99 95 91 95 98 99 97 88 98 98 98 77 54 56 57 44 43 42 41 42 31 17 13 13 14 15 15 17 21 24 28 30 34 34 40 85 100 100 100 100

GFSCGP_500_rhum_042.txt.gz
RH
64 63 61 50 46 37 15 9 11 16 31 69 91 66 48 50 50 53 30 28 31 13 11 23 19 39 33 22 24 33 39 48 20 11 14 20 24 22 26 39 54 60 62 54
51 56 65 60 52 45 24 8 10 17 64 86 74 52 69 43 52 82 67 27 29 28 16 10 13 12 13 16 18 20 18 31 48 16 14 12 11 10 24 46 52 53 71 82
49 86 62 58 60 52 36 9 10 20 60 64 62 68 74 39 61 76 74 48 23 29 27 13 9 9 12 13 12 10 9 9 10 12 7 8 7 7 11 13 19 32 66 79
40 91 63 63 68 57 51 19 10 9 29 39 47 44 46 55 63 80 88 60 31 20 31 16 18 12 10 9 9 9 10 11 11 10 10 9 8 12 21 21 21 22 29 30
48 89 92 79 79 59 48 21 15 13 10 14 24 37 30 55 53 69 85 65 74 48 26 19 15 19 15 14 12 11 12 13 15 17 13 10 8 15 21 29 30 27 25 33
44 75 70 68 80 64 57 28 20 17 15 10 21 30 27 51 72 51 75 67 80 73 83 42 28 27 37 43 46 51 29 34 34 21 16 18 18 20 41 45 39 35 35 48
44 52 72 79 74 61 55 34 30 24 15 12 28 32 15 59 59 60 47 78 67 69 80 44 38 31 29 30 32 36 45 45 40 32 25 20 18 16 36 70 50 43 40 51
30 37 70 75 78 87 59 52 36 16 15 25 22 10 14 35 64 71 70 49 67 60 45 36 35 37 33 29 35 33 31 41 46 43 32 27 29 30 28 31 31 57 78 83
22 24 59 87 98 94 72 69 64 39 31 23 17 17 29 52 55 75 63 81 61 58 39 37 41 37 30 50 64 26 29 32 37 42 44 34 32 41 34 29 55 85 68 96
23 22 50 84 97 83 77 75 78 49 43 28 13 14 28 52 68 92 59 50 59 50 45 39 31 25 33 40 50 43 34 29 40 48 62 88 46 52 62 33 35 79 53 83
18 25 46 82 72 87 78 70 70 59 58 44 24 15 40 61 73 93 73 65 84 52 55 41 35 26 23 27 33 39 63 58 59 82 97 94 98 98 86 96 78 86 91 98
19 23 19 45 70 86 88 76 78 59 50 44 32 20 62 42 54 53 80 70 74 96 74 54 38 42 32 35 33 26 19 49 64 91 93 96 88 99 71 97 99 97 97 98
38 40 21 35 58 68 70 79 77 81 59 37 37 25 31 72 60 50 68 89 90 80 76 72 59 56 51 37 34 35 25 12 15 51 87 97 99 96 99 96 90 84 88 97
88 61 42 15 52 90 87 90 82 81 62 57 47 32 26 85 55 67 65 50 80 54 87 69 72 83 52 51 37 28 23 15 17 47 51 69 72 93 82 65 71 57 64 53
89 65 70 35 38 76 99 98 97 80 70 72 60 46 38 44 67 59 68 66 77 81 74 65 76 66 58 46 42 38 30 21 14 14 15 27 46 45 45 51 55 44 50 50
99 95 99 44 55 78 80 100 90 91 86 78 78 66 55 63 81 94 93 64 66 92 85 74 80 63 62 38 42 38 28 18 17 15 32 44 40 40 40 51 58 63 65 46
94 97 88 63 92 100 100 34 76 87 100 86 87 76 57 47 49 74 94 98 65 60 82 65 52 44 43 30 30 27 15 13 18 25 39 41 39 52 58 58 59 57 27 20
13 28 100 89 86 100 35 74 66 77 94 100 100 93 64 78 43 50 91 82 92 54 59 82 82 37 66 41 17 12 16 25 26 39 53 48 43 46 46 57 35 18 20 30
41 50 70 100 100 94 65 70 74 79 59 72 84 100 89 89 82 36 36 53 56 71 64 60 54 32 39 18 16 13 14 19 34 38 45 51 45 50 50 22 19 16 23 31
37 58 94 100 100 98 85 86 93 92 73 89 99 100 99 100 79 55 88 91 59 89 87 56 28 32 31 20 13 10 13 21 22 25 25 34 34 34 27 24 22 18 27 26
44 43 78 100 98 92 92 96 100 99 63 99 99 98 88 79 80 80 77 80 88 70 58 49 29 43 43 25 15 11 15 12 13 14 15 17 26 32 33 28 19 21 26 16
60 57 56 100 97 92 100 100 100 87 86 97 97 94 88 91 98 85 66 43 46 49 52 46 56 48 36 21 18 20 12 11 13 13 13 13 15 24 27 21 22 23 16 15
56 81 100 94 97 98 96 100 89 92 100 97 97 88 75 87 85 71 64 75 96 94 75 53 60 73 50 28 29 27 14 11 12 12 13 14 18 21 23 23 18 16 16 18
64 89 93 91 100 96 99 91 95 89 97 98 95 79 75 89 92 85 58 61 75 85 87 68 50 47 34 29 36 29 16 11 11 11 12 13 16 19 17 16 17 18 20 23
77 100 98 98 99 87 88 96 100 97 86 98 95 80 84 84 84 90 100 100 96 84 86 75 64 49 44 41 48 57 37 13 12 13 13 15 16 16 17 18 19 21 25 30
84 77 100 100 94 76 84 93 100 100 91 98 100 95 99 100 100 93 94 95 93 72 58 48 39 34 39 40 38 38 30 18 15 16 16 17 18 19 21 23 25 29 34 39

GFSCGP_500_rhum_045.txt.gz
RH
38 54 60 83 64 49 46 37 13 10 23 27 39 63 80 56 42 42 35 25 29 16 20 16 30 39 36 34 37 33 45 72 78 71 69 68 68 58 49 49 58 66 76 86
51 36 85 90 67 54 52 47 23 14 22 24 50 76 68 45 51 50 37 33 24 27 17 11 14 11 19 20 20 27 44 21 12 16 24 15 11 16 27 42 51 60 58 57
41 58 90 82 66 61 57 52 34 14 15 16 28 66 70 42 48 63 55 48 32 25 30 12 7 8 10 12 16 14 16 40 18 12 12 13 14 22 28 50 51 62 60 63
42 72 77 64 65 67 61 52 43 32 14 13 31 32 56 81 44 58 67 60 47 27 30 19 10 8 9 9 9 9 9 8 11 10 9 10 12 13 15 13 15 41 52 58
48 70 68 84 82 85 70 52 50 45 33 16 18 24 23 32 32 53 71 78 70 56 26 16 15 12 10 9 8 9 8 9 10 9 9 10 15 23 29 30 28 28 35 37
61 81 73 80 87 87 80 62 53 51 39 30 25 14 11 21 35 41 64 66 75 70 57 40 27 29 35 35 32 20 13 15 20 22 17 18 15 19 28 34 34 33 32 36
38 49 60 76 78 82 74 73 54 50 48 37 28 19 12 21 35 32 46 61 65 70 63 37 40 38 38 38 36 38 43 46 42 37 29 24 23 25 27 47 56 49 39 42
30 46 62 68 72 82 81 79 64 56 57 52 28 18 13 14 16 19 38 51 68 56 41 44 50 33 38 36 29 29 32 30 46 50 45 37 31 30 35 35 62 83 86 80
19 20 43 55 69 82 86 86 84 70 59 53 37 19 18 14 16 24 48 54 49 59 54 50 46 44 42 41 47 58 46 28 30 53 55 51 46 40 40 44 33 32 40 82
18 18 24 40 48 62 85 99 92 77 62 54 40 31 29 17 24 38 39 54 45 43 52 47 45 36 28 28 40 66 57 53 44 41 58 76 76 95 99 59 47 50 39 49
11 14 19 27 33 61 82 88 83 78 68 60 45 30 31 21 21 30 42 53 50 45 43 39 39 38 34 34 35 36 89 70 72 95 100 99 100 98 97 98 91 93 86 79
8 9 11 24 43 64 90 83 95 90 74 65 58 32 37 30 31 46 59 56 52 55 49 50 55 41 35 39 37 43 49 53 56 70 87 96 98 96 98 98 98 98 98 97
10 6 7 16 46 55 48 69 86 89 83 54 64 34 44 41 30 32 31 50 51 57 75 65 58 52 51 54 52 46 46 54 36 43 38 46 60 94 96 97 91 98 93 93
25 16 9 7 26 53 46 70 100 100 74 67 45 53 49 37 35 27 39 46 37 56 56 47 70 58 60 62 57 53 50 37 30 24 19 26 40 47 57 88 48 40 75 77
74 51 30 20 22 53 54 50 66 45 56 67 61 65 66 52 46 33 32 64 44 52 50 35 45 64 70 63 59 39 41 33 24 25 24 18 20 25 44 75 57 48 48 65
100 100 89 35 43 52 61 59 51 70 75 61 80 73 86 72 67 52 53 27 35 26 38 36 45 76 78 71 85 77 66 60 44 30 22 17 23 37 56 68 64 67 68 70
66 78 99 98 94 99 51 70 100 100 88 74 72 93 100 79 83 80 67 39 35 48 87 92 69 62 69 52 82 66 63 46 27 18 15 16 34 45 53 56 60 59 60 73
21 29 38 63 100 100 42 86 78 99 99 100 96 94 100 94 85 78 54 44 33 33 61 80 75 73 63 63 80 50 59 34 25 18 16 16 32 46 59 64 62 58 71 84
20 19 21 22 25 67 70 100 100 99 71 87 94 100 96 94 86 71 73 60 54 41 70 88 89 71 81 92 74 43 32 16 15 12 13 19 36 44 51 68 72 66 52 41
26 24 22 21 38 36 42 65 100 98 47 79 74 82 86 97 79 58 79 76 83 82 54 74 88 76 83 65 43 28 20 18 17 14 17 26 33 27 26 31 44 61 39 34
30 30 28 26 30 25 35 49 100 96 47 91 86 87 80 75 62 62 93 93 90 88 88 95 90 86 74 67 63 36 23 17 14 15 28 25 17 14 15 16 17 24 36 39
34 36 29 30 28 21 24 65 100 97 80 58 98 81 71 66 63 66 79 99 97 84 84 90 83 48 56 62 48 38 27 26 20 21 20 17 11 11 12 13 15 21 29 29
39 36 42 35 30 97 66 87 96 100 100 72 79 84 79 82 86 84 76 82 83 83 84 72 74 64 65 86 85 55 57 43 35 22 24 23 12 11 12 13 14 17 19 19
52 63 54 38 27 96 97 96 98 98 100 98 98 95 82 86 100 99 82 92 90 73 69 64 71 94 100 92 66 62 55 46 34 31 39 43 33 16 12 13 14 16 16 15
86 77 55 36 32 96 100 100 93 94 98 100 96 82 89 96 97 93 94 98 96 81 83 84 100 89 100 96 80 72 71 53 37 41 45 45 43 32 17 14 16 16 17 18
86 76 59 37 43 85 99 100 100 98 99 99 100 88 76 92 100 93 94 93 99 99 100 99 94 96 100 99 87 70 68 64 57 49 43 39 34 27 20 18 19 20 22 23

GFSCGP_500_rhum_048.txt.gz
RH
46 36 42 91 98 83 58 46 44 39 21 20 18 17 24 48 50 44 34 32 23 26 17 18 24 34 26 38 39 81 84 69 99 92 100 98 78 100 100 93 95 96 100 100
50 34 60 94 95 82 64 52 50 45 29 28 28 21 23 26 45 49 50 35 29 23 24 15 13 11 19 18 33 38 27 62 79 83 98 94 80 89 99 96 99 97 97 100
60 53 63 82 93 83 73 56 52 43 37 36 33 23 30 28 39 49 58 49 42 25 23 26 9 8 8 11 17 16 36 14 20 40 42 43 57 59 44 53 55 54 66 65
60 66 54 55 76 69 66 68 56 50 49 43 42 28 30 26 26 48 54 63 42 31 24 28 14 8 7 10 11 11 11 30 16 12 14 13 18 25 27 38 41 50 58 61
59 71 59 59 81 84 82 88 69 58 52 48 42 34 28 27 23 34 46 72 60 54 28 23 16 12 8 8 9 9 9 10 10 10 10 11 12 11 13 16 22 45 59 68
81 85 73 65 84 77 87 88 70 72 62 45 46 47 35 24 22 20 36 61 63 56 46 33 23 16 14 12 11 12 11 13 16 19 19 14 12 18 24 29 30 30 32 42
58 70 73 69 72 88 81 82 80 76 65 47 50 51 40 32 20 24 35 47 58 54 46 47 31 28 33 36 43 46 47 41 33 35 32 26 22 22 24 26 35 36 35 36
49 64 63 73 79 85 85 88 90 86 82 78 60 49 50 46 25 15 20 45 56 46 52 44 35 31 31 30 29 28 29 31 45 54 48 40 35 31 28 24 25 30 52 46
31 40 60 70 90 92 89 83 90 87 83 75 62 57 54 50 23 22 16 28 50 59 47 44 39 36 31 27 33 31 30 39 31 32 43 49 47 44 40 38 36 35 34 31
37 32 42 64 78 89 89 98 91 82 67 61 55 52 46 53 46 32 19 29 53 64 48 56 58 52 30 33 30 27 40 52 46 33 29 35 58 61 57 59 78 96 80 50
17 21 23 32 43 67 79 84 90 80 63 53 38 41 46 54 52 41 23 39 41 50 57 55 50 47 37 38 26 26 39 47 58 68 78 84 76 71 72 85 95 97 98 99
14 15 15 22 32 47 56 52 58 67 60 52 40 32 50 51 68 64 68 37 44 53 64 55 73 57 46 41 33 33 39 36 46 58 68 79 98 96 89 93 95 99 92 89
8 10 11 15 26 29 27 33 33 39 43 38 38 34 44 62 68 75 71 65 58 47 52 45 62 68 66 57 47 45 56 49 50 66 75 74 65 62 65 68 90 95 95 86
8 9 10 12 19 24 29 27 31 40 38 30 21 32 60 62 65 77 72 62 40 63 61 49 53 72 71 70 59 50 60 55 50 46 36 35 36 36 40 44 51 56 90 91
12 11 14 12 13 16 21 40 58 54 50 39 29 31 42 51 56 74 83 64 52 39 68 59 69 66 60 63 57 65 73 64 50 38 47 47 36 27 24 22 33 45 72 91
36 46 44 28 24 20 15 24 50 69 73 42 24 17 48 55 55 65 70 74 59 53 47 35 42 45 43 63 75 90 77 58 53 61 53 35 35 34 22 17 33 45 63 76
98 90 57 59 66 77 27 22 41 57 77 56 34 25 39 50 56 70 71 71 82 80 82 60 50 40 60 58 62 98 93 93 68 57 40 34 35 24 16 20 37 50 62 75
35 51 93 78 94 99 68 89 100 90 54 73 59 37 39 55 71 72 78 81 78 87 81 53 52 66 55 80 72 92 100 96 92 54 41 31 14 14 15 18 32 52 68 81
32 42 38 43 40 41 57 45 70 99 62 97 87 73 41 45 67 30 74 82 87 95 79 63 57 88 100 99 92 93 94 95 81 53 38 21 16 13 13 26 32 38 44 42
23 22 21 18 18 14 15 14 16 23 48 57 72 71 69 80 48 36 77 94 83 100 86 82 80 83 86 100 100 83 86 93 95 69 40 24 16 14 23 33 26 20 18 17
26 24 21 26 25 15 18 18 18 15 21 28 67 58 57 46 51 52 63 74 91 96 99 99 97 96 87 96 95 91 57 53 72 70 51 32 23 21 22 26 17 12 13 17
28 31 31 38 32 22 28 18 23 50 53 36 56 66 64 42 37 47 56 70 80 83 96 96 98 98 90 97 99 100 60 63 72 61 52 49 53 39 25 17 25 18 14 12
39 42 49 41 36 39 32 35 30 84 80 58 42 63 72 68 54 62 61 78 85 79 78 75 87 100 96 97 100 96 75 73 67 77 73 63 70 50 34 24 30 40 30 23
56 63 51 54 36 47 45 35 32 30 56 82 61 89 94 94 90 88 69 78 88 83 76 80 82 83 83 77 96 100 76 92 100 93 77 69 54 46 41 38 38 44 44 39
61 57 52 46 42 41 51 52 34 28 91 100 68 98 100 100 97 100 98 80 81 91 97 96 85 69 62 72 67 78 94 100 86 82 69 54 42 40 44 44 46 44 39 32
64 54 51 46 46 46 65 56 35 47 88 92 77 97 98 100 100 99 100 100 95 99 100 99 80 70 89 95 90 92 87 90 88 79 78 78 86 86 76 72 72 76 80 57

GFSCGP_500_rhum_051.txt.gz
RH
54 40 46 53 79 92 73 65 51 48 45 43 37 24 27 28 55 61 34 31 36 26 24 18 17 21 26 35 40 84 97 89 79 94 95 94 76 74 67 83 96 96 96 96
58 40 65 67 75 81 71 66 62 59 50 46 39 34 33 20 53 47 41 31 42 37 25 24 16 12 11 20 31 33 42 72 88 80 97 96 98 97 81 88 92 91 98 97
70 66 64 80 78 77 68 64 72 68 53 46 42 41 38 33 35 41 35 35 48 48 26 23 24 10 8 10 15 18 36 21 76 80 87 96 95 97 93 91 97 98 96 99
84 74 67 78 76 79 49 70 83 70 70 54 39 25 40 41 34 43 40 38 55 49 32 25 25 11 8 9 11 12 16 37 14 38 53 47 54 83 97 95 76 73 75 86
85 89 66 71 86 87 81 88 91 66 66 53 49 40 35 44 40 36 47 41 53 64 72 35 21 15 10 9 8 9 8 9 17 16 11 12 11 16 23 33 34 30 44 50
97 97 81 90 96 93 90 77 74 64 63 37 46 56 34 44 43 32 24 34 61 53 63 54 31 15 14 11 10 9 9 8 8 8 8 8 8 9 9 11 12 11 19 34
100 98 98 90 87 89 87 81 74 74 60 35 55 66 50 49 51 33 25 26 49 49 46 60 55 36 23 25 32 35 30 20 17 20 23 17 14 14 14 15 20 23 25 27
94 97 97 100 93 89 97 99 94 92 73 61 64 49 49 52 55 44 23 30 43 38 47 59 58 46 33 30 32 34 27 27 29 32 32 33 31 24 22 23 21 22 25 31
96 89 93 95 97 96 95 93 100 93 86 78 60 48 53 53 54 54 28 20 36 42 46 41 42 38 36 33 24 25 30 30 30 35 25 33 42 41 38 35 33 32 32 32
29 46 86 91 97 94 92 100 96 86 79 72 60 59 65 58 68 70 47 23 25 50 50 57 46 40 45 54 36 28 36 30 39 46 44 34 30 39 45 44 46 53 58 73
12 14 20 45 66 90 94 93 88 84 80 72 68 58 55 64 64 66 56 23 30 55 70 74 54 54 41 41 35 34 32 26 40 57 54 52 62 71 63 61 87 92 97 98
54 26 17 26 47 66 79 83 81 74 71 62 51 41 61 56 62 67 66 44 26 45 58 79 80 52 48 41 43 44 36 28 34 36 33 50 56 60 80 96 93 82 72 83
31 43 43 31 75 84 83 82 71 57 56 53 52 38 53 52 48 54 63 82 46 34 45 89 98 73 74 68 67 48 40 37 39 51 53 42 41 64 73 59 56 56 62 68
13 19 22 24 19 20 21 28 35 39 43 43 34 30 34 64 54 59 68 76 74 55 50 56 79 79 90 81 69 70 66 62 58 51 52 53 46 42 37 37 33 33 36 45
10 8 13 20 22 24 25 26 28 28 29 26 28 30 36 41 49 55 60 73 91 72 53 46 52 55 66 78 79 83 88 73 66 53 48 59 48 61 52 40 37 36 28 23
10 14 13 22 34 18 15 17 26 29 29 23 32 27 37 42 58 49 57 73 78 91 75 51 72 67 55 74 76 76 80 84 75 66 59 59 47 61 50 31 29 33 28 18
40 61 42 39 58 42 12 16 20 28 38 30 19 32 37 28 33 51 50 59 77 95 99 84 70 60 58 73 84 73 84 92 93 72 71 63 58 58 46 30 33 22 18 16
36 56 65 60 44 34 31 52 76 62 34 25 17 21 20 14 14 25 54 50 78 92 95 96 94 88 84 73 67 69 89 80 98 94 91 88 83 59 38 35 20 14 13 18
16 25 64 100 95 30 66 72 67 55 77 82 60 29 17 13 5 10 37 38 44 73 85 92 97 99 87 56 58 78 100 79 89 99 96 95 90 78 50 30 15 14 12 22
24 25 24 19 27 21 18 22 22 22 25 27 42 46 39 30 13 17 37 44 42 64 90 94 96 87 90 80 77 80 99 78 70 77 87 97 90 78 52 32 37 15 14 25
30 29 27 27 24 16 23 27 28 22 18 16 13 14 24 36 39 30 37 39 41 53 68 73 82 98 94 96 98 95 87 90 93 90 86 64 58 57 62 82 76 43 33 24
35 34 31 27 20 17 24 28 30 27 22 22 15 13 11 11 21 28 30 51 44 47 49 53 65 73 96 100 99 97 97 89 91 91 90 80 76 70 87 95 85 84 78 50
37 38 38 27 22 24 28 32 32 34 26 28 24 15 28 27 34 32 25 53 48 58 72 62 68 91 88 90 88 95 97 100 100 91 84 91 100 98 98 98 89 72 65 47
47 42 33 30 29 36 38 40 40 48 42 35 30 20 26 47 43 63 55 50 54 85 100 71 70 91 99 91 87 99 100 100 98 93 82 99 95 98 100 97 91 85 69 58
57 51 47 36 38 43 51 50 44 49 45 34 33 20 51 95 100 100 83 66 90 100 100 86 82 84 86 88 90 97 100 99 95 94 99 88 97 99 98 100 99 96 82 96
58 57 52 49 50 48 49 52 49 48 43 34 31 21 33 98 100 100 100 96 99 100 100 99 87 77 80 87 93 100 99 100 95 93 94 95 100 100 99 100 100 100 99 97

GFSCGP_500_rhum_054.txt.gz
RH
94 72 46 63 70 90 93 80 82 74 63 58 44 40 29 28 28 26 28 23 35 31 26 24 21 16 13 14 30 36 63 79 93 95 97 96 96 95 96 96 97 97 97 96
72 56 71 66 71 95 76 65 79 84 72 55 48 43 38 36 33 30 28 23 22 36 26 25 21 19 12 9 15 29 27 42 70 87 92 93 96 94 95 96 96 96 96 97
72 85 77 60 89 100 85 61 79 96 77 54 50 43 44 41 40 37 32 20 28 32 31 32 23 21 15 7 7 14 20 20 64 81 82 95 96 89 95 90 88 96 97 98
76 94 75 72 95 100 94 74 84 89 87 78 53 40 35 43 44 42 36 26 28 32 39 35 26 23 16 9 7 9 12 29 14 58 79 89 92 97 93 98 99 98 100 100
96 100 87 80 95 100 100 76 91 92 81 71 52 43 46 41 46 44 36 27 32 31 46 44 33 22 17 10 7 7 7 7 20 14 18 28 30 47 59 80 95 94 78 71
100 97 90 80 100 100 97 86 91 85 78 54 54 51 44 53 49 46 35 29 25 25 48 45 45 32 17 12 11 9 8 7 7 7 9 10 10 11 21 30 40 39 34 44
100 99 96 92 98 97 95 88 95 84 69 55 66 64 52 59 65 53 48 31 18 22 28 46 47 50 44 23 20 21 24 20 12 9 8 7 8 8 8 8 10 10 10 11
98 95 98 99 100 100 99 94 91 90 81 77 69 74 58 63 68 56 54 32 19 22 24 41 47 50 50 45 28 25 24 25 22 21 24 29 24 21 15 14 14 14 15 19
98 96 97 96 98 96 95 82 94 99 91 84 81 73 68 58 62 70 59 50 23 19 27 36 52 48 51 42 37 31 24 22 23 22 24 19 21 28 33 28 25 24 21 23
98 98 98 98 96 95 97 97 92 91 91 93 84 73 74 64 65 79 70 56 43 26 27 36 36 42 54 40 45 50 39 28 27 25 27 27 32 25 21 24 30 32 33 37
61 98 98 98 91 96 96 98 96 95 95 92 100 98 61 72 69 67 72 60 48 30 27 39 42 50 51 42 47 52 45 32 34 28 27 32 37 38 40 48 57 49 64 87
68 31 88 83 77 87 94 93 94 100 100 95 84 96 82 68 66 65 75 59 49 28 30 44 55 64 48 50 52 59 49 41 44 32 27 29 32 36 31 42 52 59 65 64
76 72 17 19 30 48 78 74 80 82 82 83 81 86 69 75 76 64 69 82 55 38 39 49 60 58 68 55 45 48 54 61 45 34 32 37 46 44 43 47 57 61 58 47
28 46 74 26 23 25 28 55 73 72 76 80 76 76 66 70 64 58 52 73 84 73 58 40 44 51 60 89 67 64 66 66 49 42 44 52 49 50 55 69 64 48 42 39
64 23 25 48 53 32 32 48 78 95 72 56 58 53 49 44 40 45 41 52 66 92 95 84 66 57 64 88 83 72 76 69 66 68 69 66 63 57 51 56 52 60 52 37
44 100 91 39 44 44 36 31 26 26 25 27 32 30 33 27 25 23 25 35 48 62 88 98 94 79 57 56 89 85 89 88 87 98 85 80 69 67 69 56 52 55 56 41
48 30 38 60 59 31 20 27 37 42 44 40 35 30 18 16 15 18 25 28 39 51 62 74 92 97 89 63 66 66 62 81 87 96 73 62 55 71 83 72 66 69 67 43
55 100 92 84 88 36 22 25 33 47 48 32 19 16 13 10 10 13 18 11 10 22 50 60 65 82 96 86 75 75 68 68 77 92 78 79 71 66 80 86 76 73 65 44
34 42 50 56 45 34 43 71 68 50 57 54 32 23 22 12 9 21 21 10 14 12 10 15 35 62 80 95 97 90 82 72 72 74 64 80 72 84 98 98 90 75 81 64
31 22 18 14 14 12 32 72 69 27 38 41 39 41 42 45 44 38 37 27 22 22 25 26 13 23 51 92 97 98 94 90 83 90 97 100 88 96 96 86 77 79 83 65
28 23 22 23 18 15 25 35 31 28 18 21 19 16 15 15 16 16 18 25 28 29 34 39 46 21 23 55 84 91 99 91 80 77 94 98 97 96 99 94 81 48 67 83
45 42 31 26 20 26 31 30 27 30 20 20 21 18 12 10 9 7 7 7 9 19 27 33 36 45 30 26 61 72 90 94 98 97 98 98 95 99 89 91 89 100 99 97
47 40 48 35 36 30 29 33 30 29 24 23 24 25 17 13 14 12 11 7 7 8 12 30 30 44 47 59 51 75 88 88 96 96 98 95 94 93 95 99 100 100 100 99
53 49 38 38 40 57 41 24 25 27 28 30 31 28 25 18 15 14 34 52 11 7 12 36 69 51 46 50 66 86 100 100 100 100 94 92 100 100 100 99 98 90 88 91
59 47 48 46 51 57 60 42 37 37 34 37 36 31 27 27 21 15 16 68 92 45 45 53 67 61 78 66 73 98 100 100 99 94 100 100 100 100 98 97 100 99 94 93
58 56 50 48 46 52 53 42 44 46 44 43 44 42 36 33 28 20 19 18 69 99 100 89 74 82 97 91 91 94 100 100 100 100 100 100 100 100 79 72 89 92 83 85

GFSCGP_500_rhum_057.txt.gz
RH
100 94 79 68 78 85 97 100 100 98 100 64 67 54 43 40 30 28 22 15 12 19 14 17 18 21 19 13 10 32 29 58 91 94 96 96 96 97 97 96 97 96 96 96
96 75 88 96 98 100 100 93 79 99 84 77 71 53 47 43 37 37 28 18 9 10 10 13 22 21 18 14 8 13 24 24 60 78 80 95 97 96 94 93 96 97 96 97
98 96 99 95 100 99 100 95 87 89 96 75 70 55 49 42 42 39 32 27 12 12 14 18 27 24 20 16 9 6 13 26 27 75 98 90 95 96 94 96 96 96 97 95
98 98 96 92 92 100 98 100 100 99 91 70 86 57 56 42 42 40 37 33 16 12 15 24 34 28 23 18 10 7 9 12 21 41 80 93 93 96 95 95 95 91 88 94
97 98 94 84 79 97 85 96 100 98 91 73 66 60 60 65 91 61 43 39 25 14 14 27 40 32 24 17 10 7 7 6 9 23 17 33 56 47 77 87 87 86 90 91
98 97 94 92 98 96 98 96 98 97 96 65 51 64 60 82 89 63 45 45 31 13 15 24 35 36 31 24 14 15 13 8 6 6 12 13 11 21 15 30 64 94 96 88
99 96 96 100 96 94 98 100 100 100 96 58 52 66 54 62 64 65 55 51 45 28 13 16 34 39 35 29 26 18 16 16 16 12 11 8 6 7 7 8 10 22 30 32
97 95 99 100 96 98 98 93 91 96 96 98 62 100 56 70 73 78 69 54 52 34 13 15 29 38 40 34 29 22 19 18 19 18 17 19 22 18 11 10 8 7 8 10
99 96 97 98 98 97 96 83 95 97 99 94 100 98 74 59 74 80 78 66 56 52 23 13 25 33 43 37 32 26 27 27 19 17 19 18 17 16 23 27 26 16 16 15
100 97 100 98 97 94 95 100 98 94 99 100 100 100 98 69 72 84 82 84 65 70 55 19 18 30 48 43 34 32 36 38 35 26 25 23 20 24 24 22 18 22 27 27
93 98 100 97 90 98 99 96 91 100 100 100 100 100 99 96 61 65 77 86 82 52 49 42 16 23 42 42 42 36 41 44 42 30 32 31 24 26 30 36 42 42 38 26
82 94 95 100 100 97 100 98 99 99 100 99 99 99 96 100 70 83 82 86 75 72 57 38 26 20 32 45 54 45 40 42 41 32 34 40 27 25 24 30 35 32 40 51
56 79 96 100 100 100 97 98 99 100 100 98 98 98 99 98 91 92 96 97 82 69 65 46 42 30 38 44 54 41 43 49 38 34 39 41 36 30 36 44 44 38 38 44
25 76 92 99 100 99 95 99 98 99 98 98 98 99 100 96 98 98 97 95 91 86 93 64 55 57 58 57 57 55 40 46 51 49 52 48 43 38 40 46 44 40 49 58
39 30 84 100 86 87 100 89 47 61 88 100 99 99 97 92 84 94 84 75 81 62 89 82 79 75 58 59 63 59 50 57 56 50 56 62 51 55 58 56 57 57 52 56
100 86 34 60 59 86 99 72 30 43 64 64 84 96 99 78 59 50 35 36 35 34 42 82 91 83 83 73 63 72 70 74 77 69 60 72 63 60 64 68 68 66 60 57
100 100 100 94 78 59 49 59 66 46 42 45 60 92 58 32 25 21 23 20 19 22 30 36 63 78 85 88 81 76 70 65 56 58 64 62 75 66 61 69 63 70 74 76
70 100 100 100 100 100 87 57 60 60 64 68 57 50 35 30 24 23 18 13 10 10 11 13 26 57 79 81 83 83 81 70 62 61 67 70 73 77 72 78 62 74 68 63
99 99 86 77 57 78 78 65 63 77 78 52 54 20 22 15 17 28 7 14 13 9 8 10 7 6 15 45 62 65 77 82 76 68 72 84 89 98 86 67 65 78 68 61
49 61 88 99 100 100 98 88 66 64 83 60 32 34 27 22 30 29 26 25 24 22 22 20 21 21 20 12 9 11 24 62 76 86 82 81 76 76 76 72 87 89 88 77
49 36 30 33 53 31 28 20 12 25 70 28 43 23 16 22 20 19 16 13 12 13 14 15 12 11 12 25 29 20 16 30 66 87 97 93 97 97 94 91 85 92 96 85
80 51 33 34 74 21 57 31 16 37 47 48 25 20 18 15 12 10 10 8 8 6 6 5 5 5 6 12 28 35 29 20 30 78 97 100 100 98 95 97 93 100 100 96
86 49 60 32 39 44 51 38 59 60 52 37 21 22 23 20 15 12 10 9 9 8 6 5 4 4 4 5 11 30 43 40 47 91 100 100 100 100 96 94 100 100 92 93
100 97 59 62 59 89 44 31 49 37 32 37 33 26 22 20 20 16 13 11 9 10 9 22 18 7 4 4 5 14 37 54 61 75 100 100 100 100 100 100 100 100 100 100
100 97 77 93 100 80 55 40 36 39 33 28 24 23 26 26 27 26 23 20 17 13 11 15 28 53 42 11 9 24 38 47 72 85 92 100 100 100 98 98 96 98 98 95
100 92 83 91 76 80 78 39 46 48 35 34 34 31 27 27 28 24 21 20 20 17 11 10 14 25 46 90 46 47 49 45 53 62 81 85 98 99 96 85 92 98 99 98

GFSCGP_500_rhum_060.txt.gz
RH
96 96 80 96 81 58 74 85 99 100 94 100 86 74 70 58 41 38 30 30 19 9 5 9 11 15 22 19 15 12 16 29 30 75 94 71 80 85 84 79 88 94 94 97
94 95 96 98 94 92 96 87 84 98 100 84 97 70 76 66 44 41 37 36 25 15 7 7 10 16 24 21 16 12 8 17 22 43 65 70 93 94 98 93 96 93 90 96
91 100 98 94 92 93 92 90 97 77 100 100 76 82 76 66 48 40 39 35 30 23 9 9 15 20 29 23 17 11 7 11 23 33 64 84 84 90 95 95 84 96 92 96
97 100 90 96 94 98 97 100 98 98 100 83 98 80 91 71 57 45 38 37 36 33 15 9 15 29 32 24 17 9 6 6 22 21 44 71 76 92 89 92 95 95 95 95
99 98 98 97 96 98 92 98 98 100 100 87 79 75 74 86 94 67 64 38 37 36 19 12 14 27 32 25 15 9 7 6 6 15 26 20 34 73 67 94 94 96 94 95
100 99 96 98 97 93 97 97 100 99 94 77 62 67 61 70 78 90 97 86 40 34 23 12 10 20 28 32 25 14 17 14 8 6 6 11 11 17 39 40 59 89 94 93
98 98 96 100 97 98 98 95 100 97 95 71 72 58 41 73 100 87 96 67 48 39 38 16 10 14 16 29 37 28 19 17 16 16 12 8 6 6 7 10 29 45 59 47
96 96 99 96 96 99 98 98 92 90 98 91 76 59 41 65 86 64 61 63 69 46 42 28 12 12 15 22 37 35 22 21 21 19 18 17 16 15 12 12 9 8 12 17
74 97 99 98 98 97 98 92 92 99 100 96 75 83 84 86 69 73 69 75 77 61 47 47 15 14 14 21 29 35 28 25 22 20 20 20 19 17 16 22 24 24 16 14
23 77 98 98 99 96 96 100 97 96 96 89 98 99 93 79 66 87 96 82 84 82 59 41 39 17 16 16 24 29 35 31 34 37 32 26 24 22 21 26 23 19 20 24
18 30 90 98 85 100 100 98 97 97 97 96 97 94 93 91 63 83 81 81 77 75 64 64 57 45 17 20 24 31 31 36 42 39 38 33 31 30 25 28 33 36 36 32
10 11 27 97 100 98 98 97 100 96 98 95 95 99 92 100 94 76 78 92 87 90 90 79 77 60 48 22 31 40 37 33 39 39 36 33 33 38 28 29 27 26 30 29
5 16 40 85 100 99 94 99 98 100 99 98 96 91 98 90 89 98 100 92 92 86 94 85 66 57 43 24 25 35 47 46 36 33 32 30 29 36 38 32 31 34 36 37
3 5 26 65 99 100 93 97 99 98 98 98 98 100 98 95 98 97 97 83 93 92 82 77 71 65 57 36 22 31 37 52 51 44 37 36 34 43 46 41 39 34 40 45
22 14 24 33 50 99 100 97 96 96 98 97 97 98 98 98 98 99 92 76 89 94 78 85 86 84 80 59 45 30 31 38 54 55 50 52 52 47 48 52 50 49 50 49
27 87 33 24 56 64 90 95 99 92 99 100 100 98 99 98 95 93 98 100 99 91 66 78 73 57 64 81 65 69 68 54 40 36 40 63 66 69 63 56 55 59 60 57
7 100 100 85 42 42 74 96 97 100 100 96 98 100 99 95 100 100 86 97 84 70 36 31 32 36 42 60 80 72 76 86 79 66 52 52 55 58 68 72 69 66 67 69
4 99 100 100 97 76 52 41 61 96 90 97 95 87 83 79 71 78 43 44 30 23 20 20 19 19 37 51 40 53 60 80 75 80 79 74 67 61 58 58 71 78 69 68
14 30 99 100 100 100 96 99 84 72 96 100 100 99 88 74 69 56 54 37 26 16 9 7 7 7 8 12 18 26 39 58 68 68 64 74 82 74 65 63 71 100 97 94
8 29 74 100 100 100 100 100 98 100 100 99 93 86 68 48 52 36 26 19 12 9 7 10 12 8 7 10 10 8 6 7 12 30 33 38 39 47 68 69 71 79 73 67
73 28 42 97 100 100 100 100 97 100 96 74 43 29 33 45 44 46 30 22 18 13 11 10 9 8 9 9 10 12 12 12 11 9 9 20 22 28 44 67 72 73 73 83
98 92 43 70 100 99 98 100 100 76 61 44 31 30 30 50 38 23 22 15 13 12 10 8 8 6 6 5 5 5 5 9 11 12 14 14 24 29 33 64 87 80 94 100
100 91 80 40 30 43 44 55 49 36 29 42 64 80 55 47 21 20 20 15 15 13 11 10 9 8 6 5 5 4 4 4 4 8 18 21 27 55 79 89 100 100 100 100
98 81 76 66 41 45 95 68 41 65 50 75 99 95 65 25 26 28 23 20 19 16 13 11 9 8 7 6 6 6 6 6 4 4 7 32 38 49 81 100 99 100 100 99
100 100 80 90 100 68 63 100 52 55 67 66 63 49 36 30 35 27 25 24 20 18 16 14 12 10 7 6 6 5 6 10 19 6 4 11 44 61 82 100 100 100 100 100
100 100 100 100 100 100 100 100 81 54 52 55 48 43 37 32 28 26 24 20 18 18 18 17 14 12 10 9 7 7 8 11 20 43 22 7 17 44 68 87 96 94 95 98

GFSCGP_500_rhum_066.txt.gz
RH
11 8 7 14 65 82 48 60 96 65 31 31 42 42 82 81 91 72 55 45 37 28 32 32 26 11 7 11 17 18 16 12 9 23 38 90 92 88 80 72 73 71 68 81
11 10 8 10 52 55 45 67 92 50 98 83 44 64 94 88 78 66 57 42 39 36 38 34 27 12 10 16 19 20 15 9 7 20 42 68 82 78 80 72 67 67 74 82
14 10 9 8 46 50 45 78 100 73 78 96 66 61 88 78 73 76 79 67 42 40 38 36 29 15 12 17 23 20 14 7 6 14 32 83 88 90 80 78 73 84 91 89
11 10 8 11 50 84 69 87 98 81 92 64 80 75 71 64 57 87 94 78 48 37 39 40 37 22 12 17 24 19 12 8 6 6 22 27 74 94 80 88 80 97 99 100
11 9 10 13 82 95 83 92 94 69 63 72 91 83 71 53 57 62 75 64 55 39 38 44 48 26 14 20 22 19 11 12 11 7 7 17 30 45 68 85 89 96 95 97
8 9 16 26 73 85 91 91 94 84 81 62 76 79 62 42 46 77 81 71 61 40 41 44 44 27 15 16 24 22 17 18 14 10 6 6 9 20 30 57 95 90 96 97
9 7 37 29 58 93 100 100 99 94 76 60 71 91 48 61 70 94 84 60 47 40 46 42 52 44 24 15 28 27 25 24 16 13 12 10 8 6 9 18 30 58 92 98
8 15 36 69 66 96 98 95 100 99 97 82 76 77 43 76 97 98 84 75 65 48 44 45 54 53 34 17 17 28 25 26 20 16 15 14 14 13 13 9 8 14 27 69
5 8 40 50 48 97 96 78 100 98 100 87 70 71 74 76 76 92 72 79 64 72 57 63 57 54 56 36 16 20 23 27 25 19 17 16 18 20 21 21 16 17 12 15
11 12 29 48 72 89 100 99 95 97 100 96 90 98 94 95 96 79 68 55 63 92 100 87 66 48 58 58 45 19 25 25 29 25 21 19 26 29 26 24 19 18 22 21
15 14 23 37 85 86 100 98 96 100 100 99 100 98 93 94 89 91 82 67 55 61 72 66 56 54 63 57 54 37 20 28 28 28 29 34 38 33 31 30 25 22 25 26
42 17 15 34 80 91 99 100 95 99 99 98 97 99 93 96 90 89 92 81 65 60 56 53 53 60 60 63 55 47 37 28 27 27 28 30 38 35 34 31 30 25 24 24
48 26 17 17 44 72 83 98 100 100 99 97 97 98 98 98 92 79 80 94 86 73 70 67 60 69 78 74 74 79 63 49 44 29 32 35 30 35 38 34 30 35 34 29
9 13 16 20 37 63 85 95 98 99 99 99 85 97 100 98 97 80 78 63 96 100 98 81 74 79 97 96 88 80 96 98 90 70 65 54 41 38 38 38 35 32 40 43
11 9 5 8 32 46 72 100 94 94 100 98 99 95 97 98 97 100 96 96 81 100 98 87 95 79 97 96 88 78 72 79 95 98 88 75 76 64 73 62 45 40 39 43
14 7 3 3 6 16 54 93 96 95 96 97 100 97 95 98 95 96 99 94 99 100 88 91 98 98 86 85 84 79 70 72 79 73 83 100 90 96 98 95 92 76 58 56
7 5 4 4 8 9 12 97 100 100 100 100 99 100 98 100 98 83 96 98 98 99 98 96 98 97 96 97 91 81 74 68 60 55 63 65 69 82 100 96 96 92 78 72
5 4 4 4 6 21 26 51 74 99 100 96 98 99 97 97 98 98 100 100 98 99 98 99 98 96 100 98 100 96 85 69 60 54 49 40 38 50 71 78 76 87 80 75
6 7 4 6 5 12 40 94 62 98 92 94 100 98 99 98 88 97 94 100 100 99 98 97 97 98 98 98 98 92 68 35 28 27 26 27 36 38 40 43 38 40 59 79
7 4 4 4 4 3 92 100 98 45 60 86 98 97 98 94 81 84 92 100 100 100 97 95 97 97 92 65 52 46 54 38 17 16 15 14 13 14 12 10 11 23 42 58
9 5 4 4 3 3 71 100 100 100 78 78 82 83 69 64 61 75 95 100 99 96 95 94 91 89 87 68 64 66 56 31 12 9 12 12 10 10 13 7 5 4 5 7
53 38 27 25 4 3 39 100 100 100 100 100 94 100 98 93 77 92 99 100 99 91 58 46 46 65 66 58 31 11 11 11 10 9 10 12 15 19 20 16 14 14 15 17
100 99 78 74 68 23 16 97 98 99 100 100 100 100 100 100 100 100 100 98 84 44 31 25 24 24 21 16 11 9 9 9 8 7 7 6 5 5 5 5 5 5 4 4
100 100 100 98 78 50 86 74 96 100 100 100 100 99 100 100 100 95 96 80 37 29 25 25 26 30 25 16 13 12 11 9 8 8 7 6 6 5 5 4 4 4 4 3
100 97 100 91 90 79 80 79 95 89 99 100 100 99 98 94 93 83 74 54 34 33 47 82 50 25 19 20 19 16 14 13 11 10 8 7 6 6 5 5 4 4 4 3
100 99 100 88 83 100 100 87 94 100 100 100 100 94 70 72 68 64 69 61 36 95 100 87 45 25 27 24 21 20 18 14 13 12 10 8 7 7 6 5 5 4 4 4

GFSCGP_500_rhum_069.txt.gz
RH
18 17 13 10 8 7 7 14 42 33 63 87 61 37 33 22 27 45 65 91 82 55 47 35 32 29 20 11 10 16 20 16 10 9 19 31 89 89 95 95 99 96 97 96
20 16 13 11 10 8 8 9 42 31 92 74 52 35 29 22 31 49 74 88 76 46 37 50 33 31 17 13 16 22 20 14 7 7 18 42 84 94 90 87 86 97 98 100
20 16 14 12 11 10 8 13 45 41 95 68 54 38 33 36 39 49 77 94 64 42 43 44 35 32 18 15 21 23 20 11 6 6 19 50 71 80 85 79 76 78 87 98
22 18 16 13 11 10 8 51 59 59 73 55 53 39 31 37 52 74 88 86 62 45 49 40 39 42 26 18 22 25 20 11 8 7 8 18 32 70 86 80 73 77 88 89
23 19 15 12 10 10 9 52 69 62 75 58 62 52 32 48 64 72 75 67 52 40 51 47 56 58 35 23 24 25 21 11 13 11 6 8 12 31 59 77 75 81 98 95
26 21 16 11 11 11 13 74 90 84 72 64 66 56 40 54 60 85 79 73 57 53 51 62 78 89 51 24 22 24 21 14 18 14 9 7 6 8 17 63 83 78 94 92
29 23 18 13 10 10 22 92 100 98 76 52 70 56 41 94 99 98 98 95 71 55 46 51 68 87 93 39 20 22 27 27 24 17 13 13 12 10 6 9 23 80 96 100
32 18 14 10 12 20 46 100 99 86 78 77 77 60 49 91 88 83 80 84 74 64 46 44 70 90 84 44 26 18 23 32 29 21 16 16 14 15 16 17 9 11 73 92
33 22 8 8 15 24 68 97 99 100 100 95 93 77 69 94 76 93 84 69 79 78 79 63 68 91 94 78 54 30 19 32 35 28 20 18 16 18 19 22 20 15 12 34
35 21 10 9 26 53 78 100 98 100 100 90 100 92 75 72 89 89 74 54 58 77 84 90 97 98 84 68 58 54 36 18 24 27 26 20 18 19 22 24 25 18 20 17
38 25 20 13 35 51 93 100 98 100 99 79 99 97 82 74 81 83 77 66 64 57 73 68 74 67 52 57 58 53 49 39 24 24 21 23 23 26 34 33 28 26 22 20
50 30 32 19 34 72 99 100 100 100 100 98 100 90 76 78 89 90 80 73 77 68 60 55 56 53 59 70 64 62 65 68 54 37 30 30 27 28 28 29 31 30 26 24
77 62 75 63 21 54 92 100 100 100 99 98 100 98 82 60 63 88 75 74 80 94 88 71 64 58 60 76 77 79 75 74 71 61 54 43 44 38 29 24 26 27 29 26
58 50 82 67 37 35 61 97 100 100 99 97 97 99 100 91 76 75 81 80 94 85 78 75 71 71 76 82 99 96 96 97 99 98 91 86 79 66 57 51 42 34 30 30
54 29 42 36 42 40 33 93 100 100 100 97 100 97 95 98 100 100 99 87 68 79 85 92 88 83 89 95 98 100 98 98 88 95 95 100 92 80 79 80 76 69 48 40
33 25 16 14 20 25 31 92 100 100 100 100 100 92 92 99 98 99 99 98 99 96 100 84 70 78 95 94 94 98 98 93 89 83 83 87 98 94 88 84 99 93 96 96
73 31 15 13 11 6 8 42 96 96 100 100 94 93 89 87 98 98 97 98 100 99 98 100 99 94 80 77 78 88 93 80 80 89 85 86 90 97 97 94 90 96 94 92
21 17 14 11 11 7 7 7 39 91 92 100 100 99 84 93 97 98 95 97 98 99 100 100 100 100 99 81 75 90 91 86 82 83 76 74 78 70 75 85 91 91 90 90
42 28 11 8 5 8 15 8 24 38 87 92 100 99 100 85 95 99 99 99 98 99 98 99 97 98 99 100 99 98 98 100 96 83 72 61 63 64 60 57 46 46 59 92
21 22 11 9 7 5 16 8 27 13 23 80 95 93 85 100 97 99 100 100 99 98 98 97 98 98 98 97 94 95 99 100 94 65 60 58 58 51 37 35 41 38 33 41
19 10 11 5 5 5 10 9 33 41 33 40 61 95 99 100 100 100 99 99 100 98 100 100 98 98 98 98 98 98 98 96 85 73 66 58 56 48 31 15 8 11 11 15
18 12 10 6 4 4 7 6 21 89 77 99 78 70 92 99 95 97 98 98 100 99 99 98 98 98 98 96 94 96 99 92 86 79 56 37 24 19 14 11 10 9 11 12
34 75 55 55 12 8 9 6 8 78 100 92 81 91 74 80 95 100 93 100 98 100 100 100 98 87 51 34 36 41 46 55 74 73 52 30 13 10 9 8 7 7 6 6
100 100 100 90 46 37 30 11 6 95 100 99 71 100 100 100 100 100 100 94 98 98 97 96 93 70 35 18 14 15 18 19 20 18 13 11 10 10 9 8 7 7 6 6
95 95 98 80 64 68 60 48 30 71 100 100 93 82 96 100 100 100 100 98 93 86 81 80 76 64 57 46 35 31 35 28 22 18 16 14 12 12 11 10 9 8 7 6
100 74 93 85 71 81 78 70 74 100 100 100 100 100 96 100 100 100 99 90 75 70 64 61 60 54 40 46 61 63 60 46 23 22 18 16 14 12 11 10 9 8 6 6

GFSCGP_500_rhum_072.txt.gz
RH
56 35 23 21 19 17 14 10 9 6 6 33 36 27 32 65 60 52 24 23 25 37 82 91 77 53 31 27 12 10 13 15 18 11 8 12 20 52 93 92 97 97 98 98
38 55 31 26 21 17 14 11 9 6 9 31 39 24 24 56 65 35 23 22 29 52 83 95 78 43 34 21 14 15 17 21 16 8 7 18 51 86 100 96 96 97 97 96
45 32 28 24 20 16 14 11 10 6 14 38 31 26 38 57 53 28 24 27 31 52 80 96 64 43 34 20 18 21 23 21 15 7 7 19 38 70 92 93 93 96 97 97
41 32 28 24 20 18 15 13 11 8 7 32 40 17 43 58 33 25 27 32 37 54 92 92 54 41 42 25 21 24 27 23 15 8 7 10 16 68 79 79 86 88 88 96
33 30 27 24 20 19 15 13 11 9 8 34 44 36 22 53 34 25 35 44 59 66 91 68 57 46 53 37 22 26 29 23 14 14 11 7 7 18 28 60 81 84 79 77
35 32 30 27 22 19 16 12 11 8 13 23 45 44 30 54 36 39 50 66 86 98 99 70 59 52 47 41 26 30 29 21 14 18 14 9 8 7 9 16 53 75 82 79
37 35 33 30 25 20 15 12 11 13 15 36 57 59 48 66 40 40 69 85 87 91 91 66 53 50 58 37 32 25 32 25 22 23 19 12 12 12 8 8 10 22 71 76
38 36 35 30 20 17 11 11 19 20 30 73 81 72 75 67 62 43 63 84 91 91 85 57 54 50 62 60 48 25 27 28 28 27 22 14 14 15 16 19 17 9 25 78
37 37 35 31 20 14 13 17 28 33 81 86 92 91 79 55 65 62 92 96 97 91 85 66 67 69 73 74 51 57 25 19 19 21 20 20 15 15 18 19 19 17 11 30
39 37 34 28 19 9 9 19 44 82 96 94 94 87 74 57 70 70 94 90 76 90 97 94 81 74 86 74 50 67 57 38 20 19 19 20 21 18 17 21 24 15 14 15
42 37 42 37 26 14 13 41 76 94 99 98 96 90 68 75 67 88 88 69 72 98 95 93 100 91 59 56 57 61 61 57 50 33 23 26 24 23 19 23 24 22 18 15
80 48 44 47 49 27 24 37 75 96 99 99 98 100 70 68 84 99 98 79 74 79 97 96 96 82 62 48 75 64 66 66 68 67 61 42 44 38 29 28 31 27 22 17
95 100 86 72 52 42 29 52 97 100 99 100 100 96 93 79 86 85 87 86 74 78 99 99 97 75 64 56 64 76 74 68 78 76 76 68 58 48 45 41 40 41 36 27
100 99 100 100 100 80 30 91 100 100 100 100 100 100 95 88 68 74 84 81 71 67 92 100 100 92 62 64 84 86 84 85 91 91 99 94 87 80 73 65 50 48 47 45
77 67 96 100 100 97 47 59 98 98 100 99 100 94 99 99 98 73 92 96 96 79 82 96 97 90 80 96 100 98 96 97 97 97 94 95 99 100 98 96 87 74 76 63
62 88 92 74 69 89 50 30 52 96 83 90 97 98 94 98 100 100 100 99 98 98 96 100 98 96 98 100 100 97 97 98 97 96 86 89 87 81 83 94 97 90 90 93
100 96 97 76 51 26 19 25 26 63 85 98 96 83 91 98 100 99 100 100 100 94 99 98 97 96 99 98 99 97 91 96 92 93 90 86 81 81 84 84 85 85 90 87
100 100 99 70 57 28 20 14 13 19 74 99 99 100 88 93 99 98 97 97 98 98 100 100 100 98 98 97 96 91 85 86 91 95 98 99 89 84 87 86 91 88 80 75
98 68 72 66 48 34 17 13 8 6 21 87 98 100 99 95 91 100 97 98 95 99 98 98 100 99 95 96 88 85 91 92 88 88 89 100 100 93 86 84 85 82 78 69
65 65 64 71 59 45 13 8 8 5 10 23 70 90 100 91 94 90 98 99 99 98 95 96 98 97 99 100 99 100 100 100 100 100 100 100 94 91 84 75 66 65 60 72
78 64 65 73 65 52 10 9 6 8 30 25 33 47 97 81 99 100 100 100 100 99 99 98 99 99 97 98 98 100 100 100 100 100 100 99 100 96 92 78 70 64 61 57
63 63 64 50 42 28 12 8 7 9 21 53 51 46 47 99 100 100 99 100 100 100 100 99 98 98 98 98 98 98 97 98 98 97 97 91 86 85 80 75 61 42 28 22
79 50 38 31 25 27 12 7 6 6 13 84 84 81 74 96 98 95 100 100 100 98 99 96 89 91 93 92 92 96 86 78 66 60 53 42 30 28 30 34 30 22 14 11
90 98 100 99 85 60 36 17 8 6 6 47 100 87 96 100 100 100 100 100 100 99 98 99 96 91 96 98 97 96 67 35 25 24 24 24 25 24 22 19 14 14 13 12
67 100 100 100 100 84 70 64 34 12 7 26 100 100 100 100 100 100 100 100 100 100 98 98 98 94 94 94 95 95 95 94 85 80 76 53 42 35 27 24 19 17 15 14
99 100 93 92 97 87 74 84 63 53 35 97 98 100 100 100 100 100 100 100 100 100 100 93 80 73 68 67 55 44 40 33 31 29 39 40 38 36 30 24 19 17 14 12

GFSCGP_500_rhum_075.txt.gz
RH
65 72 80 98 89 67 41 27 22 17 13 11 9 12 9 7 34 34 37 44 46 40 35 38 51 93 90 71 34 35 13 15 19 19 16 9 8 19 44 73 86 84 96 96
69 32 35 60 60 35 31 52 29 17 13 13 11 11 8 8 31 27 41 47 53 39 30 24 46 92 92 88 45 22 14 21 23 19 12 7 22 64 84 93 100 96 94 97
80 58 53 55 54 76 78 42 20 16 14 12 12 12 6 18 27 24 38 58 56 46 23 23 59 98 91 84 49 16 21 26 22 18 8 7 18 24 67 86 94 95 97 96
80 58 60 84 50 36 28 22 18 16 16 13 13 11 9 20 25 27 47 65 53 27 22 39 78 92 95 71 42 17 27 28 22 16 8 8 10 20 72 73 85 94 96 97
86 88 98 78 40 36 25 20 18 17 16 16 12 12 9 16 32 39 51 58 54 24 29 64 94 100 94 58 34 20 29 29 22 16 12 12 7 7 18 30 73 89 89 95
100 65 63 50 31 28 25 21 19 18 16 14 14 13 9 17 49 51 49 44 27 26 34 78 89 95 72 53 38 23 29 32 23 17 16 15 8 8 7 11 21 72 82 86
67 95 85 44 35 32 29 25 21 18 16 14 15 13 10 31 51 51 45 27 26 32 56 93 98 92 65 55 42 23 28 36 24 18 18 19 12 12 13 9 8 11 37 75
48 47 43 41 37 35 32 28 20 17 15 15 15 16 22 67 70 65 43 32 30 36 88 98 98 99 79 58 51 23 22 29 27 23 23 21 14 15 15 17 18 16 10 39
43 46 43 40 38 35 28 21 16 16 18 17 22 44 27 72 72 84 46 37 47 72 94 98 99 98 84 65 48 34 25 56 19 23 22 21 21 15 15 18 19 15 14 12
29 37 43 42 39 34 34 24 19 27 30 39 71 58 57 83 72 84 58 42 85 92 96 100 98 100 82 77 54 44 41 65 25 19 20 24 26 25 19 17 19 21 18 16
20 25 39 45 48 37 32 21 18 63 75 92 96 84 74 80 76 74 68 64 68 97 95 99 98 100 98 91 62 46 56 52 50 47 27 23 26 30 29 22 20 27 25 20
96 56 48 56 46 41 42 28 46 97 93 100 100 84 97 99 85 71 73 88 93 100 96 98 88 100 100 99 77 53 52 62 62 62 55 42 35 32 30 30 28 32 37 29
66 86 88 87 71 46 54 59 83 100 100 100 98 90 97 89 96 90 77 82 98 100 94 95 97 94 99 97 77 60 69 90 84 72 66 61 52 41 38 33 36 36 39 38
16 65 100 100 99 80 63 62 96 99 100 100 100 88 98 99 96 100 95 78 97 100 100 96 95 99 98 98 90 85 82 99 95 82 76 78 76 77 74 62 46 38 41 40
53 73 100 100 100 100 99 86 59 100 100 100 99 91 85 98 100 100 98 90 93 100 99 100 90 90 99 99 95 94 91 94 96 94 92 88 94 89 81 82 86 88 83 64
98 57 100 100 84 87 100 100 88 74 100 100 95 100 77 94 94 99 99 97 99 95 99 100 100 94 98 99 100 100 97 96 98 97 98 97 95 93 92 90 81 75 83 87
100 100 100 89 54 67 72 83 83 45 67 99 96 85 93 94 95 99 96 99 94 99 99 98 99 100 100 100 98 96 91 94 93 97 98 98 95 82 81 81 76 77 78 77
100 100 100 93 59 66 74 61 47 40 26 42 98 82 97 94 94 99 98 99 99 99 98 98 99 96 97 95 92 95 95 96 88 98 95 97 97 94 83 85 80 76 74 72
99 97 86 78 89 71 65 64 30 18 15 17 41 75 100 100 98 96 96 98 95 99 99 100 92 98 98 96 99 97 96 98 94 92 96 97 100 93 85 84 88 84 84 80
98 98 80 72 71 57 58 64 35 17 11 8 10 58 97 97 98 98 98 99 99 97 98 96 97 98 98 99 98 94 83 79 78 96 98 97 92 100 95 80 81 96 90 93
99 82 69 57 47 30 44 78 54 21 14 9 9 13 41 65 96 100 100 98 100 99 100 98 96 96 98 99 98 100 98 99 98 80 91 88 99 99 99 97 100 98 100 96
85 85 72 50 31 37 52 72 53 19 12 10 15 25 29 38 91 100 100 100 100 100 100 100 99 97 95 95 98 98 99 98 99 100 99 100 100 100 97 98 98 95 94 87
43 57 48 34 51 51 43 53 34 10 7 8 17 64 38 41 95 100 100 100 100 100 100 100 100 100 100 100 99 98 98 98 98 98 98 98 98 99 96 89 70 44 34 28
67 65 46 92 100 60 37 24 17 7 6 6 17 74 91 100 96 100 100 100 100 100 100 97 96 94 97 98 98 99 97 96 97 99 98 97 95 86 67 56 59 52 44 39
100 100 100 100 100 100 95 59 31 10 7 8 10 76 100 98 100 100 100 100 100 100 100 100 100 100 98 94 94 96 93 86 86 94 96 94 94 83 77 75 66 43 38 33
78 96 100 100 100 100 100 96 75 44 30 19 10 15 96 99 100 100 100 100 100 100 100 100 100 99 99 96 85 79 72 66 58 56 44 36 28 25 26 31 34 32 30 27

GFSCGP_500_rhum_081.txt.gz
RH
68 69 81 94 95 95 99 76 72 92 82 65 67 60 32 13 10 10 10 11 8 6 9 21 36 28 35 34 34 37 56 92 82 70 37 27 14 19 16 13 9 9 10 11
70 70 86 93 63 93 97 96 89 93 98 79 70 45 28 25 22 21 13 10 8 8 10 27 47 33 39 34 35 39 84 86 82 60 36 18 20 16 13 8 11 30 63 58
77 90 82 91 95 84 99 89 97 84 68 75 71 75 53 34 19 21 22 11 10 8 13 25 39 27 40 37 39 42 96 78 80 45 34 19 19 13 7 10 13 49 84 86
37 48 78 98 78 98 79 96 90 90 94 68 100 99 92 80 63 19 13 11 11 11 22 24 37 28 44 47 41 49 75 82 77 56 28 24 17 9 8 10 17 71 79 98
39 52 46 62 99 66 94 64 71 69 81 91 71 83 59 48 22 16 14 13 11 14 23 25 44 43 54 45 35 44 88 84 75 55 27 23 16 11 8 7 12 30 83 96
9 25 45 51 79 96 98 99 97 98 85 90 64 32 72 100 56 15 12 11 11 21 24 33 54 66 55 39 26 38 91 85 69 45 30 22 15 15 8 7 7 17 84 96
61 21 22 51 49 69 96 100 89 100 88 74 99 58 66 100 21 14 13 12 12 19 22 35 48 62 42 22 22 46 93 89 66 44 33 24 15 18 11 12 16 18 18 57
23 100 94 35 56 64 89 99 99 100 100 100 100 91 99 39 19 16 15 10 23 26 23 48 56 56 26 21 50 78 87 82 64 50 28 26 15 21 15 16 18 20 18 15
98 100 74 38 23 55 75 99 81 94 75 57 44 47 100 25 18 18 20 16 37 35 53 49 56 37 24 30 68 93 90 86 65 50 29 27 20 26 18 16 18 20 21 16
15 73 100 98 19 23 48 76 100 91 84 82 74 94 99 86 46 26 27 45 52 53 55 51 64 29 25 42 85 100 81 98 63 52 46 31 28 32 27 18 16 17 19 20
49 63 63 100 50 37 58 58 90 91 88 100 96 100 93 78 72 46 39 48 63 61 57 48 29 25 27 76 98 99 91 90 54 62 80 28 23 30 30 30 20 18 18 21
61 66 58 99 100 100 94 59 96 100 76 75 81 85 89 95 89 70 80 78 73 64 54 35 29 43 46 91 98 98 94 88 55 79 86 52 22 22 27 30 29 21 20 19
45 33 72 94 99 100 44 23 53 83 98 97 99 100 84 75 96 96 77 85 92 83 74 44 28 68 64 88 96 93 86 73 55 85 84 71 57 39 23 25 26 26 26 23
52 17 56 91 100 99 100 80 34 65 89 96 92 86 76 98 99 96 82 94 95 94 92 54 37 65 82 97 96 98 84 62 67 82 96 89 67 61 50 30 30 29 30 30
62 36 33 66 82 90 75 99 97 98 100 73 97 79 82 79 81 89 97 100 95 97 97 59 41 80 79 89 96 97 87 73 74 87 99 95 89 83 66 60 55 45 42 38
60 34 100 70 57 72 63 93 100 90 64 52 56 97 100 77 83 76 78 97 100 97 99 90 57 99 100 96 98 98 93 82 81 98 100 97 96 100 88 76 74 70 76 83
89 56 100 64 97 50 40 100 99 100 95 78 66 61 67 78 86 76 74 93 97 99 100 97 96 86 85 96 100 98 97 86 73 98 98 95 94 97 97 92 83 82 85 76
73 24 93 100 98 68 41 100 100 100 98 82 68 51 44 74 82 88 96 97 98 97 99 98 97 100 93 97 98 98 89 90 87 94 97 90 95 97 94 98 97 97 96 92
55 100 100 100 100 93 98 97 99 90 98 83 73 68 53 35 76 100 90 97 99 99 98 99 99 91 97 99 95 96 97 94 89 93 98 84 97 96 97 97 97 98 97 96
100 100 100 100 100 100 100 100 88 65 68 61 59 60 55 47 36 50 90 98 88 99 99 97 99 97 94 99 85 82 91 96 98 93 99 98 98 90 95 98 98 98 97 97
97 100 100 100 100 90 92 100 68 56 53 52 51 51 43 41 23 21 80 99 98 99 97 99 97 98 98 99 97 97 87 90 88 92 86 77 77 83 85 90 95 98 96 92
97 97 98 100 100 89 75 73 59 43 38 38 42 51 38 16 12 12 24 84 100 100 98 100 99 99 97 98 98 95 97 97 98 94 85 82 85 88 80 87 99 96 99 96
100 98 100 97 94 71 61 46 54 45 27 34 45 48 43 12 9 8 18 81 100 100 100 100 98 94 96 98 99 98 97 96 98 97 97 98 98 99 98 99 98 98 98 98
89 92 94 100 87 55 40 37 33 28 21 34 55 52 38 12 21 15 42 89 100 100 100 100 100 94 86 88 91 96 97 94 93 96 96 96 93 95 90 87 96 97 98 98
100 97 84 73 62 30 26 30 32 27 22 40 53 27 18 33 100 96 51 98 100 100 100 100 100 100 100 99 98 99 100 99 98 100 99 99 99 100 98 96 97 96 95 96
85 81 67 42 32 48 79 80 89 70 52 39 30 14 8 38 100 100 100 98 100 100 99 100 100 99 93 100 100 100 100 100 100 100 100 100 98 96 95 95 93 84 70 59

GFSCGP_500_rhum_084.txt.gz
RH
24 24 40 57 57 51 57 68 67 79 87 97 82 82 65 61 41 72 21 13 12 12 13 15 15 14 16 25 15 26 31 51 38 53 90 77 71 33 20 11 16 17 14 11
24 20 39 47 64 72 69 75 68 72 84 91 81 97 74 63 80 54 65 16 10 10 12 10 7 8 14 21 30 35 37 41 40 81 86 79 55 25 13 16 15 10 9 13
20 23 24 32 48 74 82 86 78 72 84 85 92 90 82 80 84 81 70 31 13 11 13 11 8 10 22 30 33 37 41 38 48 92 81 84 35 17 17 14 8 9 13 32
17 20 26 36 50 42 58 84 84 87 87 85 91 86 84 100 97 98 81 33 40 42 15 11 8 17 25 34 35 32 36 43 60 90 80 81 28 21 16 8 8 10 12 37
14 15 17 20 39 51 44 72 83 81 93 77 74 90 69 65 96 93 97 88 57 59 46 11 14 30 27 37 40 41 40 44 83 84 87 76 29 23 11 11 7 7 11 19
14 11 11 11 11 34 48 74 77 79 98 82 70 97 77 95 92 98 98 89 82 20 14 15 30 50 42 37 44 49 44 56 87 78 94 65 31 19 13 13 8 7 8 29
44 41 43 31 32 16 27 43 78 84 100 89 90 92 93 88 98 98 99 42 16 13 12 12 48 70 68 36 52 52 38 45 74 82 93 62 31 18 16 13 10 14 16 30
57 66 100 94 52 60 23 28 54 97 92 78 100 98 98 68 97 80 62 16 14 14 16 17 15 31 67 37 55 50 28 33 48 88 86 62 35 16 19 16 15 17 18 19
96 98 98 87 75 81 35 20 71 87 87 89 99 94 96 94 77 72 24 15 18 25 32 70 32 29 52 38 50 34 22 24 58 92 81 67 42 23 21 19 16 18 20 18
27 32 26 52 88 89 58 25 51 99 90 93 76 99 95 93 94 65 21 13 17 25 38 70 54 49 48 43 51 24 24 61 77 76 79 66 44 35 25 26 17 17 20 17
24 17 22 44 82 100 60 39 12 34 91 97 99 98 100 99 100 94 49 22 20 46 46 48 56 56 52 62 45 62 49 82 84 75 78 77 70 45 35 33 26 18 18 17
43 27 42 56 80 96 100 89 70 75 81 95 90 98 100 97 100 72 68 47 27 54 65 44 45 64 65 67 42 71 94 84 91 71 80 84 96 41 32 34 30 27 21 19
9 33 51 60 81 86 98 78 98 85 67 95 100 100 100 99 81 89 98 92 70 66 88 69 59 64 68 78 90 73 81 93 96 66 84 97 100 88 42 27 27 24 26 23
17 67 54 58 100 100 97 80 97 82 61 64 93 100 99 84 97 100 100 99 88 84 92 82 68 48 50 59 78 92 94 99 83 67 85 96 95 96 92 65 30 24 25 24
91 47 72 39 80 100 99 99 100 94 66 61 81 99 83 80 88 100 98 96 100 94 88 92 79 54 35 60 85 98 96 98 96 77 74 99 90 99 90 83 71 52 34 30
98 64 57 68 34 99 100 100 98 89 100 82 100 98 82 68 79 100 100 83 91 98 98 93 100 96 43 64 100 96 92 100 97 97 76 92 99 98 99 100 90 90 76 68
97 100 96 40 65 28 78 69 71 100 99 100 97 80 69 72 62 84 100 99 91 90 100 96 96 98 79 55 98 93 96 90 99 96 82 87 99 95 97 98 94 100 95 87
71 98 94 60 100 50 24 69 66 86 98 91 87 62 61 76 71 68 90 98 91 83 85 99 97 98 95 66 77 82 95 99 99 96 83 85 91 90 96 96 91 96 97 96
69 97 99 100 100 84 100 96 56 100 92 66 77 64 63 63 63 40 52 76 86 79 96 98 99 94 97 92 94 83 100 95 96 99 95 86 96 80 86 91 95 94 94 98
64 100 100 100 100 100 100 73 43 71 93 100 99 83 71 71 64 56 36 39 79 68 87 95 99 97 100 98 92 75 87 98 99 90 98 88 85 69 63 74 85 96 95 96
54 98 100 99 100 100 100 74 76 67 72 96 80 65 57 51 49 47 43 28 35 64 82 79 97 98 98 95 97 78 98 85 98 84 82 96 97 72 96 65 62 83 95 87
68 100 100 100 100 100 99 100 94 77 65 51 47 45 47 44 48 39 23 24 20 50 83 97 94 95 98 97 98 99 99 99 89 98 100 97 95 83 91 96 97 97 71 87
100 100 100 100 99 88 95 88 80 70 54 36 31 33 33 36 43 36 18 11 13 34 48 87 99 96 93 99 98 98 100 98 99 99 100 98 98 97 99 99 99 92 87 89
99 100 100 100 100 99 80 67 48 46 49 51 26 28 32 37 34 42 16 10 18 59 43 68 99 99 99 100 99 99 98 99 99 98 98 98 99 99 98 98 98 97 98 98
100 100 100 97 97 96 56 43 38 33 31 28 33 23 30 51 44 24 35 58 41 78 99 78 96 98 100 99 100 100 100 99 98 97 98 97 98 96 94 96 96 96 97 97
83 95 91 76 75 52 37 44 33 32 60 58 35 22 39 37 14 99 100 100 99 72 100 95 98 100 100 100 99 97 98 98 100 100 100 96 94 98 99 100 99 99 100 99

GFSCGP_500_rhum_087.txt.gz
RH
26 21 26 23 22 21 21 19 16 20 49 84 61 56 65 89 98 89 74 52 77 48 28 22 16 32 19 9 8 9 12 15 34 44 52 58 78 86 79 56 25 16 16 15
31 26 26 22 20 17 15 17 19 24 60 76 62 54 60 86 81 74 69 65 56 56 41 34 38 26 12 16 13 16 22 27 34 45 68 76 67 80 74 33 20 18 17 14
27 22 20 18 15 14 16 28 24 36 51 62 66 50 58 64 73 73 71 71 75 70 38 20 38 17 14 14 14 25 20 44 42 54 62 51 67 75 63 24 22 16 12 8
23 19 16 14 14 17 10 23 29 44 50 54 69 41 51 63 73 93 90 90 90 71 49 16 21 12 9 12 33 11 39 43 45 65 45 59 84 79 50 27 16 12 8 10
19 16 14 15 14 13 13 14 17 37 50 60 57 64 40 65 72 100 82 76 85 96 68 19 13 13 26 50 20 15 46 40 47 56 44 74 82 84 42 24 14 10 8 7
17 16 16 15 13 14 13 14 12 19 40 51 80 56 90 73 75 65 96 84 75 57 41 30 36 48 47 36 10 35 35 41 55 55 55 99 91 86 57 19 13 13 8 8
17 16 15 17 15 22 35 43 26 15 29 47 74 71 99 98 90 75 94 97 98 95 73 57 48 62 28 16 23 31 35 44 72 58 66 98 88 98 55 17 15 16 11 17
13 11 34 19 14 16 25 46 44 20 26 59 78 54 88 97 96 91 98 99 100 100 97 95 78 18 13 13 39 26 46 52 66 66 73 80 88 98 46 18 19 18 17 20
16 12 13 19 32 30 36 63 64 26 23 56 69 97 94 96 99 98 99 97 85 58 66 44 29 20 16 22 36 48 64 74 76 76 56 72 96 88 40 21 22 19 18 20
15 12 14 34 42 51 24 83 57 60 62 84 88 98 100 98 99 97 99 96 46 24 27 31 37 34 44 32 95 96 79 83 81 64 62 79 88 88 32 29 26 24 20 18
6 6 6 20 75 58 36 37 63 55 51 43 69 91 95 100 97 94 96 96 82 29 30 36 36 69 78 83 96 97 97 97 69 32 65 74 90 76 47 38 31 32 25 19
5 5 4 3 35 64 50 100 99 96 50 43 72 76 96 98 96 97 100 98 94 60 42 57 52 77 82 98 100 100 95 97 34 42 79 86 100 90 90 50 38 34 34 26
6 6 5 4 6 53 64 65 91 74 71 100 100 90 98 99 98 98 98 95 96 81 61 65 61 78 95 93 94 93 100 92 93 86 82 89 100 95 96 57 36 34 35 34
7 5 9 6 11 58 92 90 100 68 96 86 92 94 97 95 87 100 96 94 97 100 94 70 68 61 67 84 94 90 84 95 96 89 95 91 97 100 100 98 64 29 27 30
9 32 69 38 21 86 100 90 100 63 73 92 97 71 62 90 99 100 99 100 99 95 92 85 72 72 72 76 84 94 92 89 95 93 98 96 100 100 99 98 80 79 61 37
25 31 52 92 36 67 99 85 83 100 98 91 58 100 85 63 99 99 100 99 100 98 89 87 75 84 77 70 75 79 95 100 100 95 96 92 98 98 99 97 97 77 80 78
32 41 44 82 97 46 71 100 100 100 100 74 75 100 89 74 84 95 98 97 98 98 91 94 90 92 94 79 50 56 73 98 100 98 98 98 99 97 97 98 97 90 73 86
90 93 61 80 99 64 43 98 99 93 99 98 100 100 100 98 88 79 76 89 68 93 88 86 86 77 76 90 94 48 73 87 100 99 95 95 97 91 98 91 93 96 95 82
83 94 59 95 100 46 86 90 100 94 94 87 87 100 87 73 68 50 52 68 48 50 74 77 90 96 88 87 96 98 70 84 84 100 98 95 94 99 94 81 83 84 91 90
51 84 71 100 100 100 89 98 67 100 88 93 89 76 86 85 73 60 43 39 43 36 44 70 71 84 89 98 98 100 98 79 99 78 99 92 98 95 94 84 76 74 76 81
60 78 86 98 100 100 100 100 99 77 53 80 94 92 100 99 76 64 57 50 43 39 33 56 77 75 79 95 96 99 99 96 69 68 91 98 81 96 96 95 88 78 71 80
83 100 100 100 100 100 99 100 100 95 68 89 99 96 93 71 56 48 44 42 41 39 24 34 70 81 71 86 92 95 98 98 100 72 96 83 98 91 93 98 85 93 92 100
100 100 100 100 100 100 100 100 100 99 86 49 40 56 44 42 36 34 32 42 38 24 17 21 45 80 84 94 100 100 99 99 97 98 99 99 99 92 97 96 97 100 100 98
100 100 100 100 100 100 95 96 95 86 66 66 51 31 28 29 27 26 27 30 38 23 10 22 37 51 54 88 99 100 99 98 99 99 98 98 99 99 99 98 98 98 98 98
100 100 100 100 99 100 94 82 63 50 44 39 30 26 24 29 27 23 19 31 31 24 12 27 92 88 83 99 100 99 100 100 100 100 100 100 100 99 100 100 100 99 98 98
67 69 83 98 94 96 81 44 34 32 31 24 34 31 28 24 23 43 63 77 75 89 91 70 87 100 100 97 95 98 100 100 100 100 100 99 99 100 99 100 99 99 98 99

GFSCGP_500_rhum_090.txt.gz
RH
49 39 36 29 27 23 18 17 16 14 13 12 8 8 6 21 44 46 42 57 70 80 80 75 74 71 65 46 21 9 8 9 14 58 50 91 70 64 54 35 34 41 42 26
40 39 37 30 26 21 20 18 15 11 9 7 6 4 15 36 43 58 58 65 84 74 70 73 68 55 60 34 12 12 14 11 28 51 42 43 60 64 48 41 57 53 40 18
39 40 34 27 23 22 18 14 11 9 6 5 7 6 16 43 55 54 63 88 94 88 74 72 66 46 20 38 42 34 32 11 22 28 55 42 57 72 50 71 73 61 27 17
37 35 28 24 22 16 14 12 9 6 7 6 5 12 21 51 50 58 68 69 70 74 72 66 81 60 32 37 35 32 18 20 25 29 56 41 51 77 68 92 84 52 22 16
26 25 24 20 17 13 11 10 8 7 8 7 5 29 23 57 54 61 62 64 65 98 88 89 73 47 57 46 36 23 17 17 32 40 57 52 76 69 91 98 95 32 19 12
28 29 26 17 14 12 10 10 9 9 11 8 13 17 15 71 84 100 95 74 97 88 87 93 58 62 15 41 18 10 23 26 40 58 54 61 68 71 95 100 79 29 14 15
35 24 19 17 16 14 12 13 12 11 12 10 17 11 28 68 99 100 97 99 97 98 92 93 66 51 15 32 29 39 52 25 78 73 70 65 54 72 95 98 55 23 14 16
30 22 18 17 18 16 14 18 19 28 25 12 18 18 52 73 98 96 99 93 98 98 97 88 72 55 19 24 34 88 98 86 78 62 59 64 52 85 100 87 52 18 16 17
28 25 17 16 14 14 17 16 70 54 26 28 19 20 92 94 97 99 100 98 98 98 100 100 86 69 57 65 93 78 60 97 81 64 67 74 56 87 100 92 48 21 17 22
20 22 15 14 13 14 13 30 100 66 42 26 25 42 98 97 98 94 99 99 98 86 62 84 96 83 87 98 70 49 68 96 95 87 93 71 46 76 91 80 54 37 19 24
15 16 17 9 14 11 29 28 59 59 52 37 26 33 51 88 99 100 98 99 96 80 48 57 29 75 65 56 51 59 92 98 99 99 98 71 51 65 94 76 50 45 22 27
7 6 6 5 4 6 73 96 68 93 83 84 45 33 47 91 100 100 99 98 100 99 48 47 23 33 56 66 82 94 96 92 97 96 98 77 65 77 94 93 56 42 27 33
5 5 4 4 4 5 10 71 95 67 78 87 100 56 98 94 100 99 100 100 98 96 77 58 42 36 34 86 100 97 97 96 95 98 97 57 62 92 92 99 86 56 44 38
4 7 10 8 7 6 5 7 93 97 62 69 85 53 78 87 99 100 100 100 96 98 89 60 60 53 44 77 91 94 98 98 97 96 95 67 83 100 95 99 97 69 35 31
10 11 9 9 9 8 7 6 60 97 57 100 73 99 100 92 98 96 99 94 100 90 97 86 82 77 54 67 83 92 88 82 90 93 82 93 94 97 97 95 97 90 73 36
12 11 22 22 22 40 24 8 25 74 66 87 100 100 92 100 81 57 95 86 100 85 88 92 87 80 73 58 43 64 68 70 77 80 85 96 97 87 91 97 100 95 85 73
20 39 62 49 57 84 84 29 52 99 94 100 100 84 71 96 100 90 74 96 91 90 95 91 84 85 75 68 67 65 67 71 86 88 92 84 97 97 91 95 98 100 93 89
32 56 82 63 78 96 88 93 78 94 100 98 82 77 79 86 99 100 80 84 76 70 68 80 88 86 80 67 71 77 74 75 93 100 88 86 87 95 97 94 94 98 98 97
53 91 100 47 93 100 100 100 100 100 100 100 100 100 97 100 100 97 90 77 47 67 53 45 74 86 76 74 69 80 80 61 66 72 88 88 83 79 77 96 92 90 81 91
61 78 67 59 96 100 100 94 100 100 100 89 100 98 100 97 97 69 56 54 38 32 39 41 30 64 85 87 91 91 90 83 59 48 64 71 81 94 99 76 89 98 78 75
56 55 63 78 100 100 100 95 99 100 100 100 99 97 100 92 64 57 59 59 53 44 35 39 32 45 72 80 82 92 100 99 94 89 77 68 65 98 90 95 99 94 98 96
98 99 100 100 100 100 100 74 100 100 100 98 99 100 100 96 79 77 69 61 45 41 43 41 30 30 46 75 73 74 79 84 97 100 100 97 84 76 99 96 99 100 98 98
100 100 100 100 100 100 100 100 100 100 100 100 100 100 89 73 79 61 64 44 36 26 37 34 28 25 32 78 75 80 88 92 94 97 97 100 98 99 92 62 90 100 96 99
100 100 100 100 100 100 100 100 100 100 100 84 52 59 58 52 42 36 43 42 30 25 21 35 24 15 19 68 78 74 90 92 99 100 100 100 100 100 100 99 97 100 100 98
92 97 94 99 95 100 100 100 92 86 69 64 53 30 23 20 20 21 20 17 24 21 23 26 29 13 29 73 97 87 99 100 98 99 98 98 99 100 100 99 99 99 95 97
51 57 81 76 95 96 94 80 68 54 45 34 27 27 24 18 19 19 24 23 37 32 20 24 29 50 45 92 100 100 100 100 100 100 100 100 100 100 100 100 100 100 100 100

GFSCGP_500_rhum_093.txt.gz
RH
62 43 67 64 58 54 44 33 26 25 20 16 14 8 7 5 5 5 4 4 4 14 20 41 57 74 82 74 73 97 98 35 42 60 24 24 40 53 62 30 52 58 59 39
66 67 68 61 53 46 37 29 25 22 20 14 11 8 6 5 5 4 4 4 7 22 33 42 51 64 83 82 41 67 80 38 40 73 12 32 51 86 99 94 78 69 56 34
82 74 67 55 47 39 34 29 24 20 15 11 9 8 7 6 5 12 19 23 26 31 34 36 53 65 80 81 58 64 79 59 16 25 16 34 71 92 97 99 83 65 54 37
82 69 67 53 44 39 33 24 21 16 13 10 10 9 7 6 5 9 36 44 47 41 44 52 63 70 77 84 84 65 58 43 20 13 24 56 100 98 98 97 99 98 49 37
76 59 54 46 33 27 26 20 17 13 10 11 12 21 7 6 4 7 22 55 76 54 49 57 66 72 67 78 55 32 47 37 34 24 35 87 88 100 100 99 100 59 56 50
68 48 45 28 25 24 24 19 14 11 11 12 12 13 8 6 4 5 25 54 89 80 68 75 88 76 69 70 65 26 29 38 55 40 57 63 81 100 99 97 88 76 68 74
64 55 38 37 42 26 18 17 16 15 15 13 14 11 8 5 7 7 31 89 98 79 78 90 90 99 93 82 76 54 39 28 50 66 76 92 97 89 91 98 79 82 81 74
71 48 59 45 22 20 18 18 21 18 17 15 11 11 9 11 20 17 58 75 91 85 98 95 99 95 96 73 65 65 45 26 70 69 97 81 95 95 97 93 63 90 93 53
85 72 32 25 20 20 22 25 30 29 15 14 16 16 13 20 26 51 97 96 79 93 87 89 100 98 88 65 52 62 61 41 77 61 72 98 99 89 92 56 90 96 89 41
60 40 26 21 19 18 17 16 18 22 20 23 20 19 14 22 36 79 87 80 95 100 96 85 89 97 97 80 34 41 86 94 92 90 95 98 100 93 82 53 76 97 82 36
41 42 33 24 19 16 16 14 15 15 42 36 32 14 31 38 37 85 96 98 99 100 97 69 96 98 96 98 70 85 85 96 94 99 94 97 96 94 80 65 80 89 75 36
35 45 39 29 12 6 6 5 6 17 99 73 28 21 34 55 47 90 92 97 98 100 98 78 61 62 91 98 98 92 95 94 96 96 98 98 96 95 90 66 85 94 48 36
22 19 17 12 8 5 5 4 4 4 6 16 42 31 51 49 66 90 100 99 100 98 100 98 83 70 46 47 98 100 98 99 98 97 98 98 97 94 53 53 82 90 92 39
12 10 6 4 4 4 4 5 7 7 5 10 28 23 60 64 59 81 98 100 100 100 100 100 98 78 52 36 48 87 98 98 98 96 95 98 98 94 52 64 88 96 97 57
4 4 4 4 6 6 6 6 8 8 6 5 27 38 31 57 97 100 93 98 98 96 100 100 98 92 70 55 56 47 83 92 96 98 97 96 96 98 62 78 98 93 89 65
4 6 8 9 10 16 21 15 11 7 7 6 6 26 42 62 98 100 100 100 100 100 100 100 100 98 82 75 68 65 83 89 94 98 98 95 96 96 78 84 93 100 92 74
8 11 12 14 36 73 55 33 57 66 11 7 7 22 77 74 95 94 100 100 100 100 97 100 100 99 94 75 71 62 55 61 66 87 95 96 99 97 89 85 95 100 95 91
13 25 32 31 47 58 55 78 100 100 39 24 16 24 52 100 98 94 97 100 100 100 77 75 78 87 98 86 86 78 70 57 44 48 96 62 94 98 96 98 98 97 97 98
22 48 73 82 84 55 90 90 100 100 97 46 50 30 64 78 100 95 92 96 100 79 62 65 49 50 68 85 78 81 77 70 63 60 57 62 99 93 100 93 88 92 98 99
61 51 71 92 65 69 68 92 98 100 100 100 90 98 100 100 100 99 96 73 55 52 22 28 44 44 32 49 74 77 72 77 88 77 66 61 96 98 71 72 75 81 97 98
54 43 50 67 91 95 92 84 97 100 92 100 100 100 98 100 100 87 59 44 45 37 29 28 24 32 36 32 54 67 78 87 98 94 84 67 58 70 96 65 97 100 90 92
100 100 100 100 100 98 95 100 100 100 100 100 99 100 100 98 98 96 74 64 53 48 43 40 38 34 31 32 33 55 70 77 84 91 100 98 84 75 71 63 56 71 94 94
92 97 100 100 100 100 100 100 97 100 100 98 100 100 96 96 81 79 69 69 65 54 47 28 31 36 36 28 27 32 53 73 79 85 92 100 98 100 100 97 90 90 97 95
96 100 100 100 100 100 100 100 100 100 100 100 100 94 69 62 54 53 47 42 44 47 46 42 33 19 26 32 26 22 36 58 74 82 87 84 82 86 97 93 99 98 97 99
73 88 95 100 100 100 100 100 100 100 100 89 77 71 58 39 24 20 19 20 25 26 25 26 27 28 20 22 25 22 21 38 64 82 94 98 95 87 90 94 98 98 94 92
50 72 80 96 100 100 98 95 93 87 60 57 46 28 23 17 12 9 8 9 11 20 19 17 19 20 22 24 25 26 27 80 95 98 96 100 100 100 100 95 92 94 98 99

GFSCGP_500_rhum_096.txt.gz
RH
93 64 55 71 54 44 41 50 59 59 51 46 40 35 23 16 11 9 7 6 6 5 5 4 4 4 9 19 46 66 73 79 80 85 86 86 98 97 81 66 70 31 32 58
74 56 63 55 48 46 47 56 61 51 44 43 32 27 19 12 9 8 7 6 6 5 4 3 4 8 14 38 46 67 68 72 74 75 100 97 98 89 87 74 61 76 58 65
78 58 65 61 48 52 68 65 53 47 39 33 28 24 14 9 9 8 7 7 6 4 3 3 10 26 34 44 58 57 66 68 78 71 63 86 61 70 74 71 74 99 93 91
62 56 76 74 64 76 75 56 48 41 37 30 22 23 13 10 11 10 8 7 5 4 3 6 22 36 41 43 46 57 65 82 82 76 58 85 54 73 63 60 81 98 98 100
76 81 88 92 90 80 70 52 48 39 29 24 18 13 16 12 11 9 6 5 4 3 4 22 45 56 48 48 58 69 83 94 76 42 84 92 49 59 34 91 78 95 99 79
99 96 93 85 80 68 77 63 40 34 24 22 15 15 21 14 11 9 7 5 5 5 22 52 70 68 52 56 73 74 85 98 94 84 88 81 39 25 46 74 84 98 85 88
100 100 100 99 95 76 66 55 36 46 61 40 22 18 16 14 12 10 6 6 6 12 48 70 86 78 84 83 78 75 78 71 48 84 76 65 46 47 84 95 98 96 96 90
100 99 100 100 89 69 69 89 86 48 30 27 19 19 17 17 15 11 8 7 11 43 58 70 69 92 91 92 79 73 79 65 37 60 57 80 60 58 97 96 97 92 100 93
100 96 97 85 93 100 94 64 43 34 29 30 26 20 18 16 15 11 10 12 74 62 88 68 71 79 96 98 96 90 78 69 64 70 62 65 66 69 89 83 98 99 98 69
100 100 100 98 88 67 69 65 56 33 25 20 21 19 15 12 10 12 18 18 85 81 92 91 99 81 97 96 99 94 82 78 84 88 90 74 76 90 69 95 96 95 91 51
100 100 97 96 87 70 45 39 33 25 19 16 18 17 16 14 10 15 25 25 80 96 100 82 100 100 98 93 96 69 73 86 99 85 98 88 77 78 82 98 94 96 71 45
88 95 69 42 47 76 60 28 24 21 20 16 22 16 14 13 13 8 30 43 95 99 100 100 98 98 95 98 96 91 92 98 96 90 88 88 62 82 96 98 97 94 60 67
66 60 48 54 53 40 38 18 10 8 7 6 6 6 8 9 9 10 62 69 97 100 100 100 100 97 86 91 98 99 97 98 97 91 98 95 96 94 98 96 94 75 59 59
95 77 58 24 12 12 10 7 4 4 4 4 4 4 4 4 4 10 51 88 100 99 100 100 100 100 82 71 86 82 95 97 98 98 98 98 97 98 97 98 94 69 69 72
32 20 16 10 6 5 4 4 5 5 4 5 3 4 4 4 4 11 53 100 100 100 97 96 97 100 100 86 71 72 58 96 99 96 99 99 93 96 99 97 95 80 70 78
16 11 5 5 5 4 4 6 6 8 7 8 7 4 5 5 4 20 44 98 100 100 99 98 98 100 98 97 79 68 60 43 53 86 97 98 96 95 97 97 95 58 65 77
4 4 4 4 6 7 7 12 21 21 37 56 71 54 7 5 5 13 68 98 100 100 100 97 97 100 100 100 86 77 65 61 56 79 89 98 96 82 88 95 97 74 74 77
6 5 6 8 10 15 25 39 33 80 80 74 56 57 32 6 11 22 97 100 99 95 100 89 83 93 86 98 99 81 73 57 62 64 72 96 97 98 98 97 97 91 82 87
7 9 12 30 39 46 64 43 59 77 89 100 89 78 64 12 14 91 98 100 99 93 99 77 72 50 52 65 94 92 84 72 55 47 53 57 97 96 97 97 98 97 95 84
15 40 33 31 42 44 54 77 54 74 89 97 100 100 49 78 96 96 100 100 87 86 69 41 37 47 45 35 40 72 92 79 70 73 72 60 49 54 97 98 98 98 96 98
44 37 70 62 68 87 100 100 53 72 98 100 100 100 86 100 100 100 100 93 71 57 50 44 39 34 31 37 35 40 57 68 77 84 75 81 94 72 98 98 96 97 93 89
51 60 60 75 94 97 97 95 83 98 100 100 100 100 100 100 100 98 92 73 53 43 26 37 40 36 32 29 31 31 33 53 60 77 89 95 85 82 74 74 94 99 95 99
66 66 64 70 89 96 100 100 97 100 100 100 100 100 100 100 75 79 87 66 72 64 55 51 42 32 28 30 32 33 30 26 40 63 65 77 83 84 80 87 80 65 93 80
46 64 80 97 100 100 100 100 100 100 100 100 100 100 99 86 60 56 51 51 43 36 33 30 37 52 32 28 22 19 25 31 26 28 52 69 77 84 84 90 96 92 89 91
71 64 76 96 100 100 100 100 100 100 100 98 92 58 50 43 42 39 26 20 18 17 18 21 21 22 24 35 33 28 25 21 20 24 28 36 56 74 83 89 94 92 99 99
65 72 69 98 100 100 100 100 100 100 98 100 93 70 37 22 14 10 9 8 7 7 7 10 12 15 16 18 19 21 22 21 22 21 26 48 69 81 90 93 97 99 100 99

GFSCGP_500_rhum_099.txt.gz
RH
73 59 40 86 96 73 74 71 57 46 56 35 36 28 45 48 42 33 26 22 18 12 8 7 6 6 5 5 4 3 4 5 7 14 40 77 50 97 85 80 100 94 92 82
94 51 57 100 95 78 76 57 51 48 49 35 38 40 48 44 35 26 20 16 12 9 8 7 7 6 4 3 3 3 7 8 14 25 51 64 79 100 93 100 99 98 87 82
100 99 100 98 94 80 72 63 70 61 57 54 44 48 49 37 27 22 17 12 9 9 8 6 5 4 4 3 2 3 16 25 31 27 42 57 67 75 94 94 89 94 91 84
93 89 100 100 97 89 84 79 77 68 62 63 53 45 46 33 22 16 12 11 11 10 7 6 6 4 3 2 4 14 24 33 31 44 50 48 68 80 74 74 90 99 100 100
99 100 98 96 99 98 86 84 75 73 72 67 60 53 46 29 16 13 13 13 11 10 8 8 6 4 2 4 21 41 41 40 37 42 50 70 85 78 72 70 87 74 100 100
100 98 99 98 98 97 99 96 87 79 70 68 61 52 48 29 16 15 16 15 12 11 10 7 3 4 23 72 57 56 55 45 45 52 73 97 100 97 90 90 65 67 96 76
73 89 99 98 100 100 98 77 75 86 89 70 51 43 36 28 27 24 17 15 14 12 7 5 4 50 61 70 80 80 67 55 68 75 96 100 100 100 85 84 76 86 52 61
100 100 98 100 100 100 100 98 91 69 54 48 49 50 49 43 30 20 18 17 13 8 5 5 38 51 60 71 90 99 95 76 80 85 100 100 100 100 90 56 70 49 35 79
100 100 100 100 100 98 95 85 71 63 62 72 67 60 45 34 28 21 19 16 10 6 5 20 79 70 69 81 91 100 100 84 83 90 96 81 99 98 86 61 44 65 62 96
100 100 100 100 100 100 100 98 93 92 85 67 55 50 44 34 26 24 20 13 8 6 7 38 87 84 78 99 98 100 100 96 81 94 97 100 94 95 95 77 66 68 100 99
99 97 99 99 97 100 100 99 92 83 78 79 72 52 41 32 26 25 19 16 11 10 11 33 93 94 84 98 98 99 99 100 97 91 91 98 93 100 85 70 53 91 97 97
100 100 100 98 100 100 99 96 90 75 80 76 48 38 34 28 26 19 14 9 8 13 15 69 90 100 93 98 99 100 100 98 100 100 97 95 92 99 86 75 83 93 96 96
100 100 100 98 98 95 93 85 68 65 75 68 56 35 21 13 10 9 8 6 4 18 48 83 93 94 95 100 98 98 99 96 99 99 93 97 85 98 98 74 95 81 85 98
97 95 98 98 99 100 86 63 43 23 18 14 15 9 6 5 6 5 4 4 3 17 60 99 90 98 100 100 98 100 96 96 95 98 98 98 96 98 92 80 83 83 95 94
100 99 89 46 24 16 14 10 8 6 5 6 5 5 4 4 4 3 3 3 3 14 73 99 96 100 100 99 99 100 97 88 92 97 96 97 98 98 98 97 92 97 98 98
86 50 21 13 11 7 5 5 5 5 5 4 3 4 8 4 4 3 3 3 3 20 100 98 100 100 100 99 100 93 92 90 70 94 96 97 97 97 88 97 97 96 96 98
14 13 7 5 5 5 5 6 8 8 12 12 16 24 28 56 35 13 5 4 6 75 100 94 100 100 100 100 100 99 84 88 70 92 98 90 90 99 100 100 97 95 97 98
6 6 6 6 5 5 6 10 17 30 37 31 58 65 84 53 56 33 7 7 26 98 100 100 100 100 99 93 96 100 96 92 79 70 62 85 92 98 92 97 98 96 98 97
6 6 5 7 12 14 14 21 39 47 41 58 66 76 85 92 43 82 55 86 100 100 100 100 99 92 68 73 78 88 99 96 93 72 76 88 100 97 99 98 92 98 98 97
6 6 16 25 24 39 41 48 59 44 48 67 73 96 100 100 84 90 100 100 100 100 100 97 83 66 58 48 38 54 78 98 97 81 79 66 62 78 97 97 98 98 99 98
10 32 26 36 43 73 84 83 69 59 76 61 93 98 100 100 100 100 100 100 99 85 68 62 45 40 37 38 39 36 42 57 68 95 91 90 75 71 81 92 99 99 97 98
38 37 42 43 54 67 84 87 67 98 91 96 100 100 100 100 100 100 100 100 96 79 58 49 47 42 37 34 33 31 32 32 36 61 85 88 91 88 100 97 98 98 98 98
58 56 43 47 64 66 88 77 83 97 100 100 100 100 100 100 100 100 100 82 67 60 59 52 50 42 34 28 26 24 25 26 29 29 32 62 92 84 89 94 86 84 96 97
56 52 56 76 65 83 87 75 99 100 100 100 100 100 100 78 61 74 62 60 64 56 54 42 35 31 37 36 31 24 21 18 19 22 26 28 30 51 64 77 88 92 94 89
56 58 52 74 72 94 98 96 100 100 100 100 100 99 96 48 37 36 34 29 22 16 13 11 11 14 19 22 21 26 29 30 26 23 19 20 22 25 28 40 62 73 93 92
81 66 51 82 99 98 100 100 100 100 100 100 100 70 39 34 26 15 10 9 8 8 8 9 9 16 17 11 12 12 11 13 17 20 26 24 20 19 18 21 34 36 51 64

GFSCGP_500_rhum_102.txt.gz
RH
70 86 19 69 82 89 96 79 80 72 78 72 70 59 47 52 41 38 31 35 38 39 36 31 24 18 13 9 7 6 6 6 5 5 4 4 4 6 27 37 60 60 80 79
98 68 76 97 99 100 98 88 80 87 100 82 73 58 49 49 45 42 42 42 40 38 32 24 16 12 9 8 7 7 6 4 4 3 3 3 2 4 8 56 74 81 99 97
91 89 99 99 86 99 98 96 99 100 94 88 64 57 50 55 56 53 50 47 44 36 27 20 13 10 10 9 8 8 8 6 4 2 2 2 4 8 6 14 65 75 88 98
88 99 98 100 90 98 93 99 100 95 96 91 69 74 54 58 58 52 47 44 38 30 19 14 12 11 10 8 8 13 5 3 2 2 4 12 22 20 17 31 67 79 83 90
94 99 98 99 100 98 100 99 98 96 94 99 85 76 71 58 55 49 43 39 31 20 17 16 16 12 11 10 8 3 3 3 5 14 40 38 33 32 41 50 69 80 79 100
86 91 95 98 100 96 100 100 95 100 100 89 77 74 86 56 51 44 35 26 21 16 14 15 16 13 12 8 4 3 7 22 52 61 52 48 44 41 52 60 81 83 81 98
100 91 95 94 79 93 98 97 100 100 97 88 92 68 81 57 56 49 38 24 17 18 20 18 15 14 10 6 4 21 43 56 71 61 55 54 46 50 63 91 92 93 85 99
100 100 100 99 87 100 99 97 100 100 100 100 75 78 78 66 56 37 30 30 28 22 18 18 17 12 7 6 11 50 63 73 76 82 63 63 62 73 94 100 98 99 97 96
100 100 94 99 100 100 100 97 100 99 94 95 100 70 63 60 50 49 48 38 26 22 20 20 14 9 7 4 34 53 78 79 85 86 72 73 81 100 100 100 100 88 99 89
100 100 100 100 100 100 100 100 100 100 100 100 100 100 100 57 63 56 39 32 26 22 22 17 11 8 6 5 53 55 94 89 90 94 93 98 100 99 92 93 94 94 92 74
100 99 100 100 99 99 100 100 100 100 100 100 100 100 99 70 61 54 42 35 29 25 20 14 10 7 4 19 61 76 97 78 88 99 97 100 94 92 95 90 98 98 80 66
100 97 99 100 100 100 100 92 95 100 100 99 97 95 84 79 75 49 36 32 29 25 17 10 7 5 5 27 74 87 99 95 80 95 99 98 100 94 100 100 98 98 97 97
98 100 100 99 98 100 100 100 100 99 100 93 94 90 78 65 58 47 37 30 22 15 10 7 4 4 7 30 75 91 97 93 91 94 98 98 98 100 98 98 96 99 98 97
100 100 100 100 98 100 100 100 100 100 99 89 76 60 50 36 27 27 23 15 13 9 6 4 4 4 6 55 80 78 94 100 97 85 88 97 97 97 98 92 97 98 98 97
100 100 100 100 100 100 97 87 72 52 26 29 14 14 9 9 9 9 8 7 6 5 4 3 3 4 35 69 86 84 97 97 94 92 99 92 99 94 96 96 97 98 87 65
100 100 99 96 89 55 18 12 9 6 5 4 4 4 4 4 4 4 4 4 3 3 3 3 2 5 76 80 95 100 98 95 97 96 99 98 97 96 92 96 96 97 98 93
96 80 52 27 10 7 6 6 5 5 4 4 4 5 7 7 5 5 4 4 4 4 4 3 62 57 92 94 100 100 100 98 97 95 91 93 98 96 94 98 98 97 96 98
34 10 7 7 7 6 6 7 9 10 9 13 15 16 28 58 59 43 40 36 32 13 28 10 100 97 100 100 100 100 100 100 100 99 96 97 98 98 99 98 94 92 98 95
7 7 6 6 6 9 13 16 20 14 23 33 25 43 85 82 68 61 46 39 96 100 94 100 100 100 100 97 99 99 98 100 99 100 100 97 91 97 98 99 97 87 93 96
6 6 6 11 19 22 27 38 50 52 49 48 53 83 68 82 80 100 100 100 100 100 100 100 100 100 98 74 76 60 71 95 98 99 99 99 95 99 98 97 98 100 100 97
6 7 21 25 24 31 45 55 58 56 69 94 67 83 98 99 97 100 100 100 100 100 100 100 95 77 53 61 56 39 37 43 76 94 99 100 100 99 86 80 95 98 99 99
8 26 24 30 37 50 56 62 65 95 100 88 97 100 100 100 100 100 100 100 100 98 92 95 75 37 33 32 34 34 34 34 32 37 78 94 98 99 99 100 98 98 98 99
27 35 34 39 47 59 63 70 87 95 91 100 100 100 100 100 100 100 100 100 98 70 39 44 49 53 47 40 31 28 25 24 24 24 30 37 53 86 98 97 96 99 99 98
35 55 52 51 45 75 62 84 97 100 99 100 98 100 100 100 100 100 100 99 90 80 69 67 55 43 34 33 32 31 26 21 21 21 20 22 24 28 32 67 96 96 98 96
46 54 56 62 61 63 70 87 91 99 100 100 100 100 88 60 38 42 34 27 27 24 18 14 13 15 15 17 18 20 18 18 18 18 21 21 18 18 20 23 26 35 83 96
52 54 51 63 84 84 94 98 100 100 100 100 99 69 48 36 25 19 14 12 12 12 13 12 11 11 11 9 8 7 7 6 6 6 7 8 11 13 18 18 16 16 16 20

GFSCGP_500_rhum_105.txt.gz
RH
3 4 3 8 50 83 74 96 97 91 100 93 45 26 63 72 66 79 69 61 53 44 34 27 27 32 35 34 32 26 18 16 13 8 7 6 6 5 5 5 4 5 11 18
4 3 4 9 43 97 96 82 85 100 98 94 86 67 84 90 85 85 74 61 52 46 38 33 32 36 36 33 28 20 13 10 9 8 7 7 6 5 4 4 4 3 4 7
13 5 10 15 74 58 90 100 62 81 100 95 84 79 92 98 99 91 74 61 51 47 43 42 41 42 38 32 24 19 12 10 10 10 10 12 15 12 7 4 4 3 7 17
24 15 18 13 43 100 99 100 99 100 100 93 100 89 99 99 85 85 71 62 51 51 51 49 46 40 33 26 21 18 16 15 17 19 16 7 4 4 4 3 2 3 7 37
43 42 31 20 37 87 93 100 100 97 100 100 100 97 100 99 79 84 83 71 55 51 48 44 37 31 24 17 14 16 16 16 21 13 5 4 4 4 7 10 16 17 27 19
52 46 50 71 86 97 100 98 100 98 100 99 92 100 100 100 97 97 87 74 69 51 46 37 33 28 22 19 20 20 24 18 10 4 3 4 14 43 57 58 53 33 31 27
71 56 70 64 99 100 100 99 100 100 94 96 100 100 95 98 100 100 87 72 49 42 33 26 26 27 23 20 21 26 18 10 4 3 6 25 48 65 60 57 51 53 60 41
75 64 64 100 100 100 100 98 100 100 99 100 100 93 100 93 77 80 85 66 49 39 27 24 26 25 21 25 22 18 10 3 2 6 30 53 68 71 59 52 48 53 72 62
99 96 91 79 98 100 100 78 100 100 100 99 94 96 94 99 100 100 99 79 52 35 32 32 31 32 32 22 20 12 5 2 3 27 61 65 74 70 55 44 43 58 71 82
100 100 88 86 89 96 100 100 100 100 100 100 100 100 97 98 100 100 79 71 63 61 52 39 34 29 23 23 14 7 4 3 21 67 74 69 81 80 61 72 55 63 86 82
100 100 100 96 86 83 99 100 96 100 98 96 100 100 98 100 100 100 100 95 78 68 57 35 28 25 24 18 10 6 3 4 40 66 71 74 79 94 97 98 97 86 97 94
100 100 100 100 90 93 100 89 95 100 100 100 100 100 100 100 100 100 96 83 72 61 49 38 30 26 22 13 9 5 4 3 60 62 69 76 83 92 95 86 97 90 90 100
95 99 100 91 100 100 99 98 99 91 90 87 99 100 98 98 96 96 81 75 87 76 48 36 30 21 15 11 9 5 4 3 34 67 79 85 77 98 98 90 81 91 98 94
96 100 100 100 98 89 89 100 100 98 97 96 93 100 96 98 90 82 76 65 55 46 36 28 22 16 11 9 7 6 4 4 19 67 84 90 84 94 91 96 98 98 97 88
99 99 100 100 100 99 98 100 100 100 100 94 96 96 87 81 66 52 30 32 27 23 20 16 12 10 7 6 5 5 4 5 37 60 89 97 98 95 98 97 98 99 93 95
100 100 100 100 100 98 97 100 99 84 65 45 32 19 24 29 14 11 6 8 7 7 8 8 7 6 5 4 4 3 3 36 59 76 94 93 98 98 94 96 98 98 90 98
100 99 100 100 95 88 51 45 10 6 6 5 5 5 4 5 5 4 4 4 4 4 3 3 3 3 3 3 3 3 32 69 87 94 97 97 94 96 97 93 89 97 99 98
98 99 92 62 11 8 7 6 5 5 5 5 6 6 6 8 8 9 13 8 6 4 7 10 9 5 4 30 22 39 76 97 99 99 98 98 95 98 99 99 97 96 96 93
83 38 10 7 7 6 6 7 12 12 11 14 12 13 16 26 57 74 67 28 25 22 25 84 99 46 81 100 100 98 100 99 100 100 100 99 98 98 98 98 99 96 91 84
10 8 7 6 6 9 18 16 21 29 27 45 42 50 64 77 88 72 100 100 81 100 100 99 100 100 100 100 100 100 98 92 99 99 100 100 99 99 98 98 98 99 88 82
7 6 6 6 16 42 30 27 39 40 45 72 82 69 69 78 83 80 96 100 100 100 100 100 100 100 100 98 76 100 52 49 69 90 99 100 100 100 98 98 98 98 99 100
6 6 12 19 22 32 38 34 38 48 67 82 69 88 86 89 63 79 97 100 100 100 100 100 100 100 76 70 70 84 62 40 33 32 38 75 98 98 100 100 97 99 98 97
7 16 67 31 42 35 42 53 52 65 92 100 96 96 98 94 94 100 100 100 100 100 100 100 99 69 48 45 41 38 34 31 26 25 24 26 30 64 93 95 100 100 99 100
7 21 32 30 39 46 56 65 92 96 98 97 99 100 100 100 100 100 100 100 96 89 80 48 36 32 31 28 25 25 30 27 25 23 24 25 23 21 21 24 32 72 95 98
12 27 42 43 55 51 61 82 96 100 100 98 99 100 97 98 91 78 79 70 65 52 40 32 32 25 17 14 12 10 9 8 7 7 8 9 9 10 14 16 17 19 20 29
9 25 49 50 69 60 62 85 95 99 92 100 100 96 89 64 62 54 46 40 38 37 32 30 23 19 17 14 13 11 9 8 8 8 7 6 6 6 6 6 6 5 6 11

GFSCGP_500_rhum_108.txt.gz
RH
11 11 10 7 5 5 4 4 3 3 3 54 91 89 73 87 78 69 33 68 98 100 75 46 38 51 47 35 31 31 32 36 35 33 31 28 25 23 20 14 9 7 7 6
10 7 6 5 5 7 8 5 4 7 6 47 100 89 80 98 87 92 81 100 100 98 75 50 47 54 43 36 33 33 33 35 34 31 26 21 15 10 9 8 7 6 6 22
8 6 13 9 6 10 11 12 10 13 50 42 60 89 96 77 86 99 100 100 99 87 76 70 65 58 44 38 34 34 38 37 34 30 25 21 16 12 11 8 8 9 11 10
10 22 22 22 14 24 26 29 25 19 97 90 100 91 89 84 87 99 99 100 98 78 74 85 73 58 48 42 37 40 42 36 28 26 24 19 19 18 20 21 13 8 5 6
25 40 37 42 48 54 35 32 29 30 37 73 77 100 36 97 99 96 100 92 100 88 73 87 80 59 52 46 42 43 42 37 29 23 22 27 27 24 12 7 4 3 3 6
43 59 43 47 40 48 32 43 87 100 100 86 64 100 71 99 98 98 100 94 92 85 94 84 81 63 51 47 43 43 39 31 25 25 26 28 23 10 4 3 3 4 10 9
72 48 48 47 41 46 51 74 98 100 100 75 100 100 88 100 98 100 94 91 85 98 99 97 71 88 86 60 45 40 32 25 29 28 29 20 5 5 6 4 10 32 34 39
59 43 50 50 53 54 56 81 91 100 99 98 100 98 100 92 100 97 92 99 99 99 97 79 72 49 47 41 36 32 30 27 27 30 19 9 4 5 3 18 47 55 46 46
82 74 57 40 50 58 55 59 100 93 99 100 100 99 100 99 95 99 100 100 100 92 100 97 94 90 54 36 42 40 31 33 31 24 10 4 3 3 8 48 59 60 51 46
88 80 95 71 50 60 77 88 100 92 99 100 96 97 98 99 100 100 100 95 100 100 98 94 85 76 51 42 41 40 43 32 24 12 6 4 3 13 46 56 62 63 56 46
98 94 91 99 78 93 84 87 97 100 94 100 98 99 100 100 100 100 99 100 95 86 83 79 74 69 62 61 54 43 33 28 14 8 4 4 3 32 55 60 73 88 82 84
100 93 87 100 100 96 91 98 98 100 100 100 100 99 100 100 100 100 100 86 68 96 99 81 78 74 67 50 43 35 32 20 11 7 5 3 2 41 70 67 69 97 96 98
91 87 99 100 91 78 80 100 99 84 95 100 100 100 100 100 100 92 73 77 100 97 80 74 77 78 55 43 34 34 26 15 10 7 6 4 3 25 70 79 80 84 95 98
100 100 100 100 99 83 74 90 98 100 94 89 100 100 100 94 73 50 46 69 69 68 77 86 78 72 65 44 42 28 19 14 10 8 5 3 3 21 51 75 78 100 88 95
100 99 100 100 83 84 88 81 79 78 87 87 99 100 96 64 53 50 60 69 71 73 60 42 37 36 30 28 30 20 16 12 9 6 3 3 3 33 50 76 85 93 95 95
92 97 100 96 92 100 97 98 100 93 88 93 100 100 76 66 67 76 61 35 19 19 11 9 12 10 9 15 15 12 10 8 8 5 3 3 11 75 67 83 75 89 98 92
100 100 99 100 100 100 100 94 90 98 81 54 44 51 38 11 6 5 5 5 5 4 4 4 4 4 6 6 6 6 6 5 4 4 3 6 43 75 89 96 95 93 97 96
100 100 100 100 100 99 76 66 36 8 7 6 7 8 8 8 8 8 8 9 10 7 6 6 5 4 3 3 3 3 2 2 2 2 6 51 82 83 96 98 98 89 93 97
100 100 100 97 70 43 21 6 6 8 13 15 16 17 14 17 14 19 31 59 55 36 15 14 18 18 48 32 25 15 46 59 54 59 83 97 100 100 98 98 99 100 97 95
100 100 78 25 8 7 5 7 11 16 16 26 24 34 42 49 42 79 56 58 99 55 39 71 98 99 62 99 100 100 100 100 100 100 100 100 100 100 100 98 98 98 98 99
86 32 7 6 6 6 13 19 20 18 25 41 58 57 61 51 62 84 86 80 100 100 100 100 100 100 100 100 99 100 100 100 100 99 100 100 100 100 100 100 100 99 99 99
12 7 6 6 6 10 16 27 22 24 41 59 58 56 71 84 68 69 68 91 100 100 100 100 100 100 100 100 100 100 100 100 96 91 80 77 77 93 97 99 99 100 100 100
7 6 32 10 38 34 28 30 36 36 57 90 92 88 93 89 48 56 97 100 100 100 100 100 100 100 100 97 89 73 68 46 44 37 37 40 29 27 28 35 61 86 98 99
6 6 11 21 26 22 28 39 50 44 88 88 81 93 97 100 98 98 100 100 100 100 100 99 98 85 69 59 37 31 64 59 26 15 12 11 10 10 7 7 10 15 26 42
6 7 14 23 31 32 34 50 66 82 79 80 84 100 98 100 100 100 100 99 95 93 88 69 61 48 40 33 28 25 20 16 14 12 10 9 8 6 6 5 5 5 5 6
7 8 15 40 38 40 42 51 79 94 100 99 97 100 90 56 55 55 59 66 62 39 28 28 28 26 23 21 18 17 16 15 12 10 8 8 6 5 5 4 4 4 4 4

GFSCGP_500_rhum_111.txt.gz
RH
21 20 19 14 13 12 11 9 7 6 5 5 4 4 3 2 31 77 78 100 100 100 95 74 37 29 37 62 74 61 53 52 38 27 28 28 26 29 34 33 32 30 28 34
18 17 13 13 13 11 9 7 5 5 5 6 5 4 4 5 5 81 99 100 100 98 89 76 65 50 45 56 80 66 56 49 34 31 30 29 30 31 30 28 25 22 18 18
17 18 17 16 14 11 8 10 10 9 9 8 22 16 15 9 10 90 98 96 100 100 82 95 64 56 54 77 85 73 61 51 39 34 32 31 32 31 29 26 23 20 18 14
21 19 17 16 15 32 12 20 17 16 26 21 24 29 17 17 65 57 85 100 100 98 94 64 42 35 51 98 90 80 67 52 44 38 35 33 34 34 32 25 21 21 21 21
19 19 17 14 23 35 30 30 23 36 31 25 23 77 27 41 38 78 82 100 98 100 80 50 37 59 100 100 97 85 81 63 48 45 41 37 35 35 30 26 28 27 26 21
15 12 13 23 37 38 40 37 47 39 39 33 60 84 34 72 52 74 100 96 96 92 94 60 44 86 96 96 86 80 85 89 63 46 43 40 37 35 34 32 28 22 14 9
23 26 42 50 48 48 32 44 55 46 47 41 63 68 69 80 90 80 100 99 98 84 82 84 84 97 100 100 96 75 56 58 52 52 56 48 41 38 31 29 19 5 8 7
16 60 66 58 55 48 36 47 72 51 38 37 48 50 74 94 100 98 100 98 96 95 98 100 100 100 96 98 94 94 96 91 80 59 43 39 40 32 30 17 8 7 6 4
57 63 73 57 46 41 42 59 62 56 60 55 56 80 95 99 98 98 99 100 98 97 90 97 100 100 86 64 67 61 48 54 46 40 39 41 34 32 22 7 6 5 4 3
64 76 95 74 56 44 49 60 79 77 62 80 78 84 100 100 100 100 99 98 97 100 96 100 99 94 99 99 94 92 86 84 66 53 44 39 34 25 10 6 6 4 3 28
92 100 95 82 67 61 54 75 86 90 85 98 76 99 100 100 100 100 100 100 100 98 100 97 100 100 97 73 75 81 72 62 57 52 47 37 28 13 7 6 5 4 6 31
100 97 99 97 80 68 55 58 97 96 100 100 100 98 100 100 100 100 99 79 100 100 100 100 89 72 62 76 64 60 62 61 60 56 40 33 15 11 7 7 6 4 9 44
97 100 100 100 88 90 81 91 92 98 100 100 100 99 100 100 91 91 96 100 100 100 100 94 82 84 75 54 49 48 58 62 57 46 38 23 14 10 9 7 5 6 8 48
100 100 98 100 93 86 99 100 97 93 98 100 100 89 83 73 81 69 82 100 100 100 100 99 88 77 75 58 52 57 66 67 53 49 37 18 14 11 10 6 6 4 7 55
100 100 100 100 99 88 100 95 99 94 86 96 100 88 63 49 53 66 75 72 73 79 82 68 48 44 52 55 60 64 61 60 54 50 28 18 14 12 7 6 5 2 30 54
100 100 100 100 100 97 100 100 92 90 100 99 92 74 68 69 68 63 60 51 49 52 52 45 42 50 54 32 28 27 24 22 44 24 17 16 14 11 6 5 3 16 54 58
100 100 100 98 100 100 93 96 100 100 100 100 100 83 87 78 78 79 66 61 54 49 46 36 22 10 5 5 5 5 6 7 9 9 10 10 9 7 6 3 4 62 77 75
99 100 100 100 100 94 82 84 96 100 100 92 54 20 9 6 6 5 5 5 4 4 4 4 4 4 3 3 3 3 3 3 3 2 2 2 2 3 2 5 29 84 96 86
100 100 100 98 94 98 87 93 96 72 29 10 7 9 10 12 14 16 17 20 24 26 23 17 16 14 14 16 37 24 37 44 57 55 62 50 39 57 83 84 90 100 99 95
100 100 100 100 100 96 72 33 17 8 11 18 15 13 18 36 54 72 57 71 41 81 78 82 100 100 100 100 100 100 100 100 100 100 100 100 100 100 100 100 99 100 99 97
100 100 100 100 92 54 15 6 7 13 21 18 27 45 42 43 53 54 66 82 72 99 99 98 100 100 100 100 100 100 100 100 100 100 100 100 100 100 100 100 100 100 100 99
100 100 94 32 9 5 8 12 23 23 18 34 55 68 49 59 69 63 65 48 87 100 96 97 100 100 100 100 100 100 100 100 100 100 100 98 97 97 73 85 97 99 100 100
93 64 19 9 6 10 14 27 26 22 35 53 70 87 80 79 82 44 55 96 100 100 100 100 100 100 100 100 100 99 80 72 86 92 82 77 65 75 82 39 18 31 53 90
60 11 6 9 22 23 20 23 25 33 51 89 71 81 93 95 83 91 94 100 100 100 100 100 100 99 98 83 82 92 56 21 16 14 11 10 9 8 6 5 6 19 20 16
10 6 7 9 20 23 24 26 38 50 73 85 85 99 98 98 100 97 95 100 100 100 98 97 77 63 33 22 19 18 17 16 14 14 14 12 11 11 10 10 9 8 6 4
9 7 8 14 18 28 29 31 34 62 91 93 94 99 100 100 100 100 90 90 72 62 30 26 24 21 19 19 19 20 20 20 18 17 16 15 15 14 13 13 12 10 9 8

GFSCGP_500_rhum_114.txt.gz
RH
44 35 31 29 26 23 20 20 18 15 14 14 12 14 13 12 9 6 4 4 12 32 96 42 13 7 6 6 10 25 58 77 90 89 76 60 56 50 37 34 33 32 32 33
44 37 34 28 22 20 18 17 18 17 16 15 13 12 10 8 5 8 11 13 94 99 97 86 93 65 41 26 25 38 56 89 86 80 74 68 58 46 32 30 35 33 29 29
39 32 28 25 22 20 21 19 18 17 15 14 11 9 7 5 9 13 15 17 37 65 99 100 100 100 86 64 67 58 51 76 91 88 78 65 57 48 37 33 34 34 32 30
29 27 25 25 24 21 20 20 19 16 13 9 11 10 5 8 12 22 34 21 25 20 58 66 95 98 61 70 60 76 63 100 98 90 80 68 59 49 40 36 34 33 30 28
28 28 27 25 23 20 19 16 15 20 18 15 12 25 8 11 35 51 61 48 38 44 100 98 99 81 77 72 62 95 100 98 97 92 83 73 60 46 40 38 35 30 29 30
36 28 24 24 21 16 16 21 45 38 30 20 22 32 12 24 34 66 66 54 58 55 58 93 97 99 81 82 83 85 97 96 99 90 82 82 79 57 44 40 37 32 29 29
30 26 21 17 16 24 36 55 58 48 35 20 30 33 26 23 43 79 75 96 83 48 80 67 87 96 94 82 77 98 97 96 97 85 82 86 78 75 55 44 38 33 31 34
23 17 18 21 27 48 54 60 62 67 33 34 30 39 25 30 61 73 76 100 88 100 89 92 93 100 100 92 92 96 99 98 93 99 75 44 47 50 47 51 61 42 37 33
20 20 33 50 72 72 59 59 71 57 61 43 38 42 44 51 80 97 98 98 100 100 100 92 73 89 100 100 97 99 90 81 86 84 91 88 79 71 51 52 44 40 34 31
29 35 49 67 72 69 80 66 69 71 69 54 54 40 47 76 100 100 100 100 100 100 99 100 100 100 100 100 100 98 91 94 93 98 97 96 88 44 47 49 43 36 32 20
65 89 57 56 73 92 100 72 76 93 83 69 55 54 62 85 97 96 100 100 100 100 100 100 100 100 99 100 99 89 78 64 60 58 60 69 72 60 53 44 41 37 23 10
77 75 46 34 99 97 100 86 80 88 99 83 66 91 63 98 100 91 96 100 100 100 100 100 100 100 99 98 98 83 77 53 52 55 45 43 56 55 54 48 38 29 15 8
59 42 24 100 100 87 84 86 84 96 100 91 79 79 85 83 94 100 100 97 99 100 100 100 100 100 98 99 91 74 54 48 45 45 39 40 52 56 52 40 32 17 11 9
22 41 51 90 100 100 85 96 85 96 96 97 74 80 77 79 83 85 80 65 69 82 96 98 99 97 95 83 69 60 54 49 36 33 38 46 53 52 47 40 22 15 12 12
9 22 71 82 95 96 94 100 100 96 100 91 78 79 83 81 75 71 67 66 55 48 57 74 71 70 76 75 63 65 44 31 28 34 54 59 61 61 58 41 21 15 13 11
11 56 83 82 85 90 100 100 99 100 98 82 82 75 74 71 62 63 65 70 62 56 53 43 36 33 31 37 49 36 30 38 44 43 45 41 46 66 60 35 21 17 15 8
44 82 89 96 100 100 94 95 100 99 100 95 82 81 74 81 86 78 70 68 62 59 59 55 50 46 41 35 36 39 36 27 12 8 8 12 17 20 23 23 21 18 12 8
74 99 99 100 100 100 84 98 100 98 98 92 75 86 97 99 71 26 10 9 7 6 6 6 5 4 5 6 7 6 4 4 3 3 3 3 3 4 4 7 9 7 5 5
95 100 100 100 100 98 96 100 100 100 94 86 91 80 60 26 8 9 8 10 13 16 17 18 14 14 16 12 9 8 10 10 13 30 33 20 24 38 36 41 42 20 12 40
100 100 100 100 100 97 96 100 100 97 81 67 42 19 10 12 15 22 32 32 44 62 41 81 74 81 94 94 99 100 93 100 100 98 100 100 100 100 100 100 100 100 100 100
100 100 100 100 98 90 91 100 93 54 28 19 10 12 15 29 38 42 47 56 64 72 85 94 82 95 99 99 100 100 100 100 100 100 100 95 99 97 97 97 95 98 100 100
100 100 100 100 94 84 88 48 17 15 15 17 14 16 54 58 36 54 57 60 63 76 99 100 100 98 97 98 100 100 100 100 99 100 99 96 100 98 98 99 100 98 96 95
99 91 100 100 98 57 11 9 11 14 18 17 34 46 63 74 66 66 52 61 73 92 94 100 100 99 100 100 100 100 99 100 96 77 49 32 18 12 11 10 11 12 30 63
97 100 96 86 42 10 12 19 22 19 22 39 71 59 54 74 81 60 65 82 87 92 92 92 95 98 90 95 96 72 38 23 16 15 14 15 16 16 16 14 13 13 14 13
98 95 55 16 10 22 25 20 22 22 31 59 77 67 80 86 89 87 81 79 88 88 96 99 98 80 53 32 21 19 18 16 17 20 21 21 20 21 22 22 19 14 12 10
68 31 12 9 9 25 21 25 25 26 40 66 86 82 94 99 99 96 94 95 99 97 92 53 25 20 20 20 19 20 23 25 24 24 24 26 29 29 24 19 16 14 13 12

GFSCGP_500_rhum_117.txt.gz
RH
55 49 50 52 46 41 37 31 29 27 24 22 20 18 18 18 16 14 14 13 11 10 9 8 7 6 6 5 5 5 4 5 7 17 28 28 42 53 79 78 70 61 55 50
53 47 50 50 47 44 40 34 31 28 24 22 21 19 17 15 15 14 12 10 8 7 6 6 6 6 9 10 24 40 28 26 27 28 50 76 80 81 84 87 82 71 60 49
51 47 47 47 47 45 38 32 28 25 24 24 23 15 14 16 13 10 9 9 8 7 7 8 8 12 86 93 93 84 88 92 84 77 77 51 68 98 98 93 85 71 60 44
40 47 46 43 40 36 31 27 26 26 24 22 20 18 17 14 11 9 8 8 9 16 28 34 29 24 67 99 100 100 100 87 74 94 98 98 80 75 97 95 78 65 55 43
38 38 39 38 36 34 32 31 28 26 25 24 22 25 17 12 9 8 7 10 15 20 28 66 74 55 44 99 100 99 98 86 78 80 95 92 96 100 100 95 80 66 57 45
42 45 44 43 43 42 38 31 25 24 24 23 25 28 17 12 9 9 9 10 25 42 57 69 73 84 72 60 99 100 94 98 63 96 99 98 95 98 96 83 74 58 48 42
46 42 44 42 39 35 29 22 20 22 22 25 28 32 25 14 14 17 19 23 47 80 82 89 82 60 84 97 100 100 100 95 95 80 81 97 99 99 97 93 81 71 42 34
49 46 48 42 32 26 24 24 30 38 33 31 37 38 31 24 21 24 23 46 63 79 94 95 83 58 83 86 100 100 99 98 97 85 94 95 97 70 98 96 96 77 78 60
48 45 44 40 31 31 41 49 68 75 58 54 46 48 43 37 34 32 36 52 63 100 100 100 100 100 92 100 82 80 95 93 99 100 97 90 84 91 98 98 63 83 96 96
42 41 42 43 40 46 67 74 84 77 72 72 60 52 47 46 45 46 84 100 100 100 100 100 99 100 100 100 100 97 92 100 99 94 99 80 77 87 75 93 96 76 79 68
38 57 42 46 50 83 77 64 79 89 88 91 74 60 58 51 55 65 87 100 92 94 100 100 100 100 100 100 100 96 100 100 100 98 92 85 50 47 41 35 65 99 86 49
55 96 87 85 100 87 83 44 87 88 93 93 88 62 60 47 65 99 100 100 100 100 98 100 100 100 99 100 100 99 97 99 98 83 77 62 50 38 31 28 37 53 64 63
82 88 72 72 76 66 42 39 100 100 94 80 85 65 70 55 58 99 100 100 99 90 87 81 86 97 99 100 97 97 97 99 94 80 60 55 42 34 32 24 32 41 49 51
92 96 86 95 96 39 34 87 100 100 92 78 84 67 65 61 68 88 100 99 86 68 58 56 55 80 94 79 94 99 100 100 95 68 51 46 41 34 26 24 32 45 51 50
81 96 100 100 60 17 28 93 98 100 78 91 94 84 67 79 82 96 98 86 65 54 49 48 42 37 33 42 64 69 73 65 52 53 50 41 39 33 25 22 32 46 55 52
88 87 100 59 21 13 38 100 83 71 89 100 96 82 90 100 90 84 76 64 57 59 60 55 52 47 43 31 23 28 48 44 42 42 35 41 34 36 33 38 48 51 56 55
100 99 100 37 14 46 78 63 87 93 100 100 85 96 92 86 80 70 66 65 70 65 34 24 20 20 18 23 29 36 29 23 24 26 28 32 33 33 18 12 18 31 41 45
100 93 27 16 30 82 80 93 100 100 100 92 94 94 89 84 76 72 79 82 72 27 9 8 10 10 10 10 8 10 10 10 10 10 9 6 6 6 4 4 4 5 10 18
36 20 24 58 54 70 70 82 95 100 100 97 94 94 89 84 81 83 60 21 9 11 14 20 26 21 18 28 24 20 14 12 17 29 43 60 79 82 78 70 54 31 13 9
51 62 93 86 86 79 78 100 100 100 92 100 100 98 94 87 71 32 12 12 20 26 50 50 63 54 65 77 78 93 100 100 100 100 100 100 100 100 100 100 100 99 100 95
90 100 94 100 94 88 95 100 98 96 97 96 79 58 38 19 12 13 19 27 32 46 66 68 60 70 68 75 87 92 92 100 100 100 100 100 100 99 98 98 100 100 99 97
97 100 99 100 92 85 96 100 100 100 91 53 30 15 13 14 28 54 38 36 46 55 65 87 76 85 84 91 92 94 100 100 100 100 100 100 93 60 33 21 17 23 37 29
98 94 100 100 95 98 100 100 99 69 33 14 15 12 19 50 57 65 65 42 37 58 75 80 79 83 80 84 93 100 100 100 95 57 22 16 14 15 18 18 19 18 18 41
99 100 100 100 95 98 100 77 13 9 13 16 15 27 48 48 57 67 60 45 60 76 77 85 91 94 96 100 100 100 98 73 35 19 17 20 22 24 30 28 24 20 17 15
100 100 100 98 100 99 74 13 15 25 18 17 32 46 56 55 71 66 48 63 68 76 89 99 100 100 100 93 45 22 21 21 21 23 25 27 31 31 28 24 21 20 18 17
100 100 99 99 76 39 17 22 24 20 20 26 48 60 67 69 79 84 82 80 80 96 100 100 98 53 34 23 22 22 22 24 27 28 31 32 32 28 25 22 20 20 18 16

GFSCGP_500_rhum_120.txt.gz
RH
25 30 44 57 47 49 48 42 40 44 41 33 31 28 27 25 23 22 22 21 20 18 14 10 8 8 8 8 8 7 7 8 8 6 8 8 8 14 10 12 15 30 45 68
47 42 54 49 46 46 48 46 46 42 42 36 29 26 28 25 23 22 22 22 18 14 13 12 12 10 8 7 7 6 6 6 6 12 38 38 23 23 49 32 24 28 47 67
49 47 46 44 48 51 49 48 47 42 43 41 31 26 25 24 24 23 21 20 19 18 16 14 11 8 6 5 8 25 18 12 17 70 100 100 97 97 70 92 85 45 66 96
45 45 41 38 40 42 39 42 40 38 36 33 30 25 24 25 24 23 23 22 20 16 13 9 7 6 5 12 27 64 42 67 98 82 95 100 90 100 100 100 97 78 88 98
47 47 44 41 39 37 36 40 42 42 40 37 34 33 25 24 24 24 22 20 16 11 8 6 8 9 26 26 49 51 57 64 99 99 100 98 80 88 100 97 91 96 96 85
51 46 46 48 47 44 42 42 42 39 37 32 29 29 22 24 24 24 20 16 12 9 7 8 9 47 64 76 61 60 63 64 93 100 97 97 98 99 98 100 100 97 94 96
48 46 46 46 46 48 47 47 42 37 34 30 30 28 27 27 26 23 18 15 13 9 12 16 44 85 91 98 88 63 77 100 69 100 96 99 99 96 95 96 99 96 88 98
48 47 52 52 49 47 45 44 42 39 36 34 33 30 30 31 29 23 22 22 22 22 22 37 43 60 96 97 91 75 66 100 88 97 100 100 100 94 98 97 96 94 82 81
58 53 52 50 48 46 43 44 51 69 56 52 42 42 40 36 41 33 30 37 38 32 44 66 82 87 94 100 100 100 91 100 99 92 86 98 98 98 98 85 91 54 80 100
59 52 48 49 48 47 47 50 57 78 94 75 60 44 35 53 61 54 54 49 55 65 93 97 89 90 76 74 88 100 100 100 100 74 76 75 91 100 100 89 52 71 38 34
56 52 46 46 45 54 58 58 70 95 92 72 52 36 44 70 68 66 65 61 78 96 100 90 93 97 100 87 79 76 97 100 100 98 100 97 100 99 99 76 58 34 30 25
40 44 39 40 46 78 78 93 100 100 95 57 42 38 63 66 74 76 79 73 93 100 98 93 82 82 94 96 100 100 100 100 100 100 100 100 100 96 81 62 53 37 24 18
64 100 98 92 85 88 100 100 100 98 77 36 81 78 76 92 73 91 93 93 90 89 88 86 76 62 58 61 61 85 99 99 100 98 95 90 79 84 68 57 47 40 32 24
100 94 86 73 93 95 86 75 82 100 47 69 100 93 82 77 74 90 92 99 89 96 100 99 78 60 51 46 41 37 43 78 80 85 96 88 76 69 60 50 44 30 28 28
59 87 100 99 99 100 99 85 84 93 24 37 82 100 86 71 97 95 98 100 100 99 90 75 61 52 47 44 42 36 31 28 29 36 54 62 62 59 48 43 29 33 24 27
61 71 100 93 96 92 100 91 80 86 22 54 100 88 70 89 99 79 94 100 100 94 78 70 66 64 56 42 32 35 37 37 35 30 26 25 24 25 27 24 26 25 24 27
90 99 100 94 93 100 92 62 80 39 14 16 68 72 79 98 92 81 89 96 94 85 77 74 52 27 10 7 8 8 9 10 12 14 20 20 14 15 14 19 25 27 29 30
56 99 100 100 99 100 84 73 60 17 18 52 47 80 100 100 90 84 89 90 85 84 66 22 11 16 25 25 19 26 19 13 11 9 10 11 14 19 23 18 15 15 17 15
98 100 100 94 69 86 82 57 23 20 39 72 91 88 98 92 96 89 96 93 87 64 20 15 31 52 46 52 65 78 73 70 66 68 84 98 100 100 100 100 100 100 97 92
100 100 100 89 76 57 23 13 34 47 49 81 90 93 100 100 93 99 92 82 34 14 19 30 56 64 62 87 88 96 100 100 100 100 100 100 100 100 100 100 100 100 100 100
100 100 100 84 52 22 23 57 80 72 80 99 95 100 100 98 82 55 26 15 15 27 34 45 63 64 83 88 92 100 100 100 100 100 100 100 86 79 99 60 26 34 48 34
99 87 74 57 66 49 71 80 95 100 100 100 100 100 95 69 25 14 14 40 49 35 45 58 70 91 86 91 87 87 95 100 100 100 100 89 42 26 22 25 26 24 21 29
62 58 73 99 77 86 86 97 100 100 99 97 100 82 27 19 14 20 54 61 74 52 49 63 78 74 81 93 97 100 100 100 99 75 40 29 27 27 30 30 27 23 19 16
81 72 73 77 76 88 100 100 100 99 99 92 30 15 15 17 34 48 50 58 64 50 54 66 74 84 99 100 100 100 100 91 68 32 30 30 29 31 30 27 24 22 21 19
93 92 90 86 90 98 100 100 100 99 30 13 20 18 27 38 49 55 67 56 46 58 77 80 94 95 100 100 92 44 30 29 30 32 31 28 31 33 30 28 27 24 21 18
88 99 100 100 99 95 98 98 97 47 21 25 19 23 42 51 63 69 58 66 65 70 80 94 100 100 98 78 27 27 28 33 35 34 31 33 34 32 28 25 23 21 18 15

GFSCGP_500_rhum_123.txt.gz
RH
48 45 31 26 26 27 29 38 41 42 43 37 42 38 40 37 38 36 33 30 28 25 24 23 22 20 18 17 16 16 15 15 14 12 9 8 11 38 43 27 23 13 6 7
46 42 42 43 45 44 41 40 42 38 40 35 35 38 37 36 37 37 33 29 26 24 23 22 21 21 20 19 19 18 17 15 13 10 27 35 23 33 20 8 7 7 6 6
50 52 48 45 48 48 40 39 36 33 38 38 33 34 32 30 30 28 29 29 27 26 25 23 22 21 20 19 17 12 9 7 6 5 10 18 51 43 44 81 40 20 25 14
50 56 50 48 48 46 41 40 36 33 30 29 29 27 25 23 24 29 29 27 24 23 22 22 22 22 19 17 12 8 5 8 14 20 39 56 50 49 97 98 93 85 89 75
56 56 52 51 49 46 43 41 40 37 33 28 27 30 21 22 24 24 23 23 25 26 26 24 21 16 12 10 8 6 23 48 42 44 58 72 71 90 91 100 99 98 87 75
65 58 56 53 51 48 45 45 44 38 37 29 30 33 22 26 26 27 27 27 27 28 26 21 16 13 10 8 8 30 65 62 66 57 72 70 96 100 86 100 96 100 96 84
66 58 56 52 51 51 50 49 46 41 41 40 36 34 28 27 27 31 30 30 30 29 24 19 14 12 10 10 15 43 60 93 91 77 90 93 97 100 100 100 98 97 73 84
65 59 58 55 53 52 52 54 52 48 44 40 35 28 24 24 29 32 36 34 32 31 30 24 20 19 21 40 41 32 50 52 61 87 100 100 99 88 100 98 99 98 85 88
62 55 54 54 56 55 52 52 54 49 46 43 36 30 26 30 39 40 36 30 35 42 42 39 31 38 31 32 48 53 51 53 56 80 99 100 100 100 98 100 99 99 73 72
62 60 56 55 56 56 55 53 51 54 55 50 40 35 31 37 46 40 37 55 61 59 56 49 44 73 81 61 65 60 52 61 58 73 81 99 99 98 92 80 99 100 97 80
72 69 62 56 52 56 51 47 50 59 74 71 63 36 41 52 42 52 72 76 66 63 64 56 58 68 69 80 72 71 76 81 86 64 59 61 82 100 98 97 94 94 96 84
76 69 63 55 48 46 47 45 57 88 100 90 100 43 55 51 49 100 92 84 68 67 76 80 70 69 72 73 72 60 55 58 61 89 100 100 100 98 92 100 98 93 87 61
72 85 74 52 58 70 82 90 99 100 100 84 100 56 58 42 97 100 100 92 78 80 75 88 91 93 76 75 76 68 58 46 48 40 41 90 100 100 100 94 84 82 70 55
76 69 89 83 100 100 100 85 96 100 97 95 74 80 63 41 56 100 100 88 89 80 87 91 94 97 87 72 58 48 43 41 39 34 31 33 62 64 68 77 71 71 60 55
46 62 67 76 82 100 97 79 83 95 96 100 67 74 69 40 90 100 100 96 94 86 97 100 100 94 81 64 54 52 51 48 45 42 35 33 33 32 40 48 53 62 66 34
35 59 79 67 66 67 69 80 79 88 94 90 100 61 72 62 54 100 97 90 94 86 100 100 98 89 74 61 45 28 18 10 6 14 28 35 33 35 32 28 25 25 24 24
25 32 44 47 51 68 70 37 63 88 84 72 62 64 51 24 57 86 100 97 95 89 100 100 96 84 56 26 10 11 10 9 8 5 4 6 6 8 6 6 6 6 7 8
10 11 78 42 84 90 48 65 75 94 66 66 79 75 38 35 83 79 82 98 99 96 100 100 94 47 20 29 36 38 45 48 37 31 20 16 18 27 31 53 72 69 67 52
8 17 56 83 56 77 77 68 84 73 50 70 52 30 20 43 78 81 93 100 94 100 100 94 37 24 43 60 60 67 74 89 98 99 96 98 100 100 100 100 100 100 100 100
11 29 46 100 98 75 61 80 76 59 32 34 23 26 47 73 80 100 100 97 100 83 42 19 30 40 51 61 75 88 100 99 100 100 100 100 100 100 100 100 99 96 82 53
19 25 87 100 100 100 77 60 59 35 36 28 36 54 83 94 96 97 100 95 55 21 20 55 53 46 64 70 93 98 84 99 100 100 100 100 100 100 89 48 29 27 38 59
100 100 83 100 100 87 64 55 42 36 32 58 80 96 98 98 95 98 82 31 17 30 71 66 44 62 84 99 96 100 100 100 100 100 96 56 38 34 34 34 35 34 29 24
95 100 100 99 78 63 46 42 42 46 75 94 100 97 90 91 91 36 20 14 40 58 72 57 54 78 91 99 100 100 100 100 98 92 76 42 38 38 38 37 32 28 25 24
98 78 87 97 77 53 55 56 46 62 92 97 96 96 92 63 22 16 21 43 50 57 66 43 57 75 98 98 96 100 100 94 59 48 38 38 38 37 36 33 31 30 28 26
99 86 89 83 77 73 60 56 66 89 97 99 96 95 60 20 21 34 44 55 66 69 55 69 75 88 100 96 99 98 58 30 34 35 34 35 37 37 36 36 37 34 32 26
99 92 90 76 85 81 92 91 97 96 95 100 82 25 23 23 44 53 69 66 55 58 73 81 89 100 100 100 67 33 26 32 34 36 38 39 39 39 36 34 33 27 24 20

GFSCGP_500_rhum_126.txt.gz
RH
61 66 64 53 48 46 39 35 34 36 39 36 36 36 33 30 33 35 37 37 37 37 34 31 28 26 24 23 22 22 21 20 19 18 17 16 16 17 19 24 28 23 15 10
71 68 61 56 50 45 42 40 42 40 39 35 30 30 25 27 31 38 39 37 35 32 29 27 25 25 25 24 21 18 16 16 16 16 16 16 13 11 12 27 28 36 36 28
73 64 50 45 46 46 44 45 45 40 36 35 28 28 23 25 28 30 31 31 29 28 27 26 24 22 21 22 22 21 20 20 18 16 13 11 8 7 12 12 20 40 47 47
59 48 48 53 50 45 42 42 41 38 36 36 30 29 26 22 27 29 28 26 25 24 23 22 22 21 20 21 21 22 21 18 15 12 9 7 7 8 15 21 49 66 72 72
43 48 53 53 50 46 44 44 42 40 37 34 34 30 30 24 24 27 27 27 26 26 25 23 22 22 22 22 22 21 17 13 10 8 10 15 20 32 38 52 73 79 62 48
47 51 56 58 58 51 47 48 46 42 39 35 35 34 32 26 32 32 31 29 27 24 24 24 24 25 25 24 19 15 13 10 9 10 39 56 60 49 53 53 64 70 93 93
50 58 64 64 62 58 54 51 50 46 42 43 38 37 32 29 36 35 32 29 27 26 26 27 26 24 19 17 17 17 17 25 30 44 58 55 74 70 78 79 94 88 70 100
56 62 61 64 66 57 53 52 52 51 52 44 34 32 29 32 34 34 33 31 29 29 30 28 22 18 21 27 28 23 22 26 47 56 52 51 60 58 80 94 97 98 95 100
58 62 68 69 66 60 50 51 54 53 52 47 40 33 28 31 35 36 36 35 38 37 29 23 22 24 31 36 37 29 22 25 34 37 62 65 54 78 96 98 99 98 98 100
57 67 65 67 64 60 57 53 55 58 57 55 40 34 30 25 33 40 45 53 42 33 28 36 36 39 42 43 37 29 31 38 53 55 51 60 71 50 66 81 94 96 97 99
72 82 77 69 58 64 60 53 54 65 71 73 49 40 24 26 38 49 56 49 54 53 53 50 42 36 39 45 44 37 35 42 46 54 56 56 63 64 50 62 80 89 91 96
100 94 91 74 70 64 60 57 55 96 78 83 87 38 45 49 64 76 62 48 60 76 68 59 49 44 36 34 42 45 44 53 56 54 50 45 41 76 89 71 90 94 83 83
100 90 100 89 78 77 64 74 63 99 100 70 100 81 62 59 67 85 70 51 80 84 79 76 67 55 44 50 59 60 62 58 49 44 40 38 38 40 69 100 100 95 93 89
100 97 100 98 100 100 96 99 100 99 95 96 87 100 87 91 68 78 64 47 60 100 89 74 73 62 64 72 72 68 66 54 47 45 43 41 36 36 38 65 69 70 77 76
99 88 99 87 87 99 99 100 96 91 97 100 74 98 62 100 71 80 70 63 88 100 90 75 74 77 73 76 78 73 64 55 50 44 42 36 43 41 39 35 37 43 52 51
100 86 96 80 83 77 71 62 59 91 88 100 90 58 88 83 76 64 53 59 53 68 84 83 96 87 81 78 82 71 64 49 17 9 8 6 7 12 31 35 36 33 31 31
100 100 100 88 92 89 90 58 67 56 62 57 61 56 64 70 65 55 65 46 27 40 92 100 100 96 96 91 88 66 31 10 11 10 9 9 7 8 10 9 10 14 17 17
98 98 81 79 65 67 69 63 49 36 35 40 41 63 82 78 54 66 72 48 24 62 92 90 94 100 100 95 52 20 28 35 40 40 38 28 25 26 32 36 68 95 88 82
90 81 77 72 42 31 38 38 28 35 24 51 87 93 71 52 48 47 19 23 51 94 97 95 100 100 90 34 24 47 57 65 79 92 92 98 100 100 100 100 100 100 100 100
62 50 47 54 45 23 25 22 22 35 51 53 66 54 41 28 25 19 25 47 85 100 100 100 99 44 22 41 40 55 73 89 90 96 100 100 100 100 100 100 100 100 99 69
15 13 13 12 44 35 18 40 85 99 68 65 48 38 22 17 25 41 67 91 100 100 100 94 30 25 64 45 62 74 85 75 89 90 94 100 100 100 99 86 57 33 32 35
15 61 51 56 46 50 74 100 97 99 84 52 38 27 21 21 63 88 100 100 100 100 69 21 43 76 52 64 86 88 90 99 91 100 100 100 95 82 56 41 38 36 32 28
24 51 71 100 100 100 100 100 91 74 63 49 31 23 21 67 100 100 100 100 94 30 19 43 67 75 60 85 88 87 81 88 100 100 90 71 52 43 40 42 39 33 29 28
32 35 65 78 98 91 89 98 83 53 36 27 24 31 71 95 100 100 97 52 23 20 48 59 68 54 75 86 88 96 96 100 100 88 63 42 43 45 44 39 34 33 34 31
78 93 90 78 58 62 71 94 82 52 44 33 34 76 94 100 98 48 25 25 36 43 56 70 52 57 74 84 89 100 100 85 61 52 43 39 40 41 40 40 43 46 42 38
99 100 84 73 66 64 75 89 84 74 62 62 76 93 100 96 86 32 33 44 58 73 75 67 67 86 94 90 100 100 77 37 33 37 42 40 38 38 38 38 43 43 39 32

GFSCGP_500_rhum_129.txt.gz
RH
72 70 66 57 55 60 65 60 50 46 45 35 37 37 40 37 32 34 33 31 28 25 24 26 29 29 29 30 28 25 24 23 23 24 23 22 21 19 18 16 16 17 22 40
66 68 58 51 58 66 61 53 53 48 42 34 36 33 37 28 32 33 32 31 28 26 24 23 22 22 21 19 18 17 17 18 18 18 18 18 18 17 16 16 15 14 14 14
68 67 61 63 74 74 63 53 45 45 40 29 32 27 32 19 28 32 32 31 30 28 26 24 22 21 20 22 22 21 20 17 15 13 14 15 17 18 16 14 12 10 11 11
58 67 51 79 76 66 52 47 43 47 39 39 27 27 28 24 15 30 32 30 29 28 27 25 25 25 24 20 18 16 14 12 14 15 17 18 17 14 12 9 8 8 7 10
54 62 53 70 67 52 50 48 45 42 42 38 36 31 25 27 19 24 26 28 29 30 30 29 25 22 21 20 17 15 16 18 17 15 14 13 12 11 9 8 13 39 33 21
56 42 50 57 48 43 46 48 47 48 48 34 36 36 25 39 21 26 32 31 29 30 28 26 25 24 23 21 18 16 17 15 14 14 16 15 12 11 16 30 50 58 60 46
56 59 51 46 43 46 47 53 55 46 44 38 48 36 31 35 27 33 33 33 32 31 30 28 26 25 25 21 18 17 15 15 17 23 20 22 22 18 42 68 71 75 63 64
62 61 59 50 48 51 52 56 58 57 56 63 59 28 32 30 30 34 36 35 34 32 25 23 24 26 24 22 18 16 17 23 34 35 23 23 38 37 59 69 70 64 70 98
80 59 73 63 62 62 58 57 62 61 52 52 43 38 33 29 28 28 35 32 29 26 25 26 29 28 26 20 19 22 21 27 35 29 20 18 46 45 56 70 72 68 94 98
74 76 83 74 71 65 63 61 62 64 57 54 43 42 74 40 30 29 34 30 31 33 35 36 37 31 24 24 32 28 28 27 26 25 26 18 29 45 50 55 75 95 100 88
90 88 88 76 73 70 68 65 67 68 58 57 50 51 56 50 32 33 39 36 42 46 52 52 43 31 32 35 42 37 37 33 25 20 23 24 30 45 47 49 60 83 100 95
94 93 93 78 86 78 86 70 72 76 62 63 57 39 78 53 44 39 43 46 68 76 74 62 46 41 58 60 52 42 39 39 32 34 42 42 46 47 43 42 44 97 91 86
99 88 92 94 98 94 77 82 84 92 79 65 79 64 60 81 80 76 60 60 61 68 70 66 47 40 46 79 71 59 49 37 35 45 45 43 38 36 35 35 39 52 100 100
99 96 99 97 99 100 100 94 100 95 96 80 84 89 94 85 100 100 52 63 65 60 67 64 50 52 96 84 67 58 49 50 45 49 54 49 41 42 39 35 39 39 62 100
100 99 100 99 100 100 100 100 94 95 99 99 87 100 86 100 100 98 70 56 73 62 59 64 49 80 95 84 66 58 59 62 58 57 54 51 46 30 31 35 34 37 40 46
100 96 100 98 89 100 100 91 76 100 88 91 100 93 83 100 100 100 82 63 62 58 58 47 48 56 63 70 79 84 79 73 75 70 55 20 8 6 7 7 11 13 29 34
100 99 100 91 100 100 99 55 89 85 87 94 94 90 82 100 100 84 89 45 43 51 44 60 64 28 24 81 86 80 84 84 82 49 17 19 23 20 14 13 11 14 20 33
100 100 100 97 100 100 70 68 72 75 83 71 95 100 100 100 88 37 42 62 57 40 62 51 60 42 75 100 94 98 98 84 28 30 51 58 56 55 52 46 55 68 100 100
100 100 100 100 98 96 94 70 75 79 65 63 64 41 61 71 30 39 49 44 41 36 37 23 38 66 87 97 100 100 60 21 40 58 71 88 86 96 99 100 100 100 100 100
100 100 100 100 98 92 64 77 100 84 65 55 49 42 37 32 37 45 33 20 17 20 22 32 95 85 100 100 100 39 28 38 59 80 81 78 96 100 100 100 100 100 100 100
100 100 99 99 100 89 60 65 84 60 41 39 36 41 69 71 46 35 25 20 17 17 42 82 100 100 100 97 28 42 42 57 85 78 91 85 97 100 100 100 99 88 52 46
86 96 86 78 64 54 45 39 37 34 24 29 36 72 70 49 42 27 21 17 31 59 94 100 100 100 87 30 54 52 65 90 97 93 80 100 100 98 92 91 72 53 42 37
47 38 55 79 78 97 100 100 99 75 91 100 100 89 61 47 32 20 18 33 87 100 100 100 100 67 28 65 73 63 92 94 86 82 100 94 94 90 57 48 48 43 38 34
62 51 44 66 48 57 81 93 100 99 93 86 69 48 38 32 24 19 34 84 100 100 100 95 37 26 58 74 69 89 91 87 89 100 100 94 72 53 46 47 45 40 36 33
96 100 68 69 56 46 40 44 65 91 72 56 55 56 45 37 39 26 72 100 100 87 55 32 34 56 68 62 81 96 93 100 100 93 74 67 57 45 42 42 40 36 33 28
96 89 94 82 90 100 87 95 85 82 89 83 75 67 58 53 52 75 100 100 61 29 40 48 52 65 74 62 89 92 97 100 84 76 59 40 38 41 42 40 36 33 30 30

GFSCGP_500_rhum_132.txt.gz
RH
59 61 52 63 65 66 59 53 52 50 54 59 52 44 41 40 39 30 32 31 27 22 21 22 22 21 21 22 21 22 23 22 21 19 18 18 18 18 18 18 18 17 17 18
61 56 63 65 66 68 66 59 51 50 62 63 50 45 42 41 43 29 34 25 26 22 19 22 22 23 23 22 21 20 20 20 20 20 20 19 18 16 14 12 11 11 11 11
67 61 62 62 66 61 62 59 55 68 62 57 54 46 44 40 33 28 34 28 28 24 21 19 20 21 21 22 22 21 21 20 19 17 15 14 13 12 11 10 10 10 11 11
71 66 58 61 61 62 67 63 67 73 70 58 51 42 45 30 32 26 28 29 26 26 24 23 21 22 22 19 19 19 19 18 17 16 16 15 14 12 12 13 15 14 14 13
69 66 63 56 60 73 69 70 63 65 62 51 49 48 36 43 31 26 25 24 25 25 24 23 24 22 21 20 18 18 17 14 12 12 13 14 13 12 11 11 13 14 12 10
84 88 70 63 55 63 73 61 71 69 52 42 43 49 34 51 58 29 23 24 28 24 23 23 23 23 21 20 18 15 13 11 12 16 17 14 12 13 14 19 18 16 14 13
86 93 89 72 61 64 60 56 59 48 43 34 47 56 44 55 54 45 31 27 26 27 25 24 24 24 22 19 16 12 11 15 24 20 15 15 15 20 26 28 23 25 27 32
90 84 84 73 71 70 64 62 53 47 46 48 78 60 60 63 47 55 50 34 31 29 28 26 25 23 20 16 12 14 21 25 21 18 19 20 26 29 26 21 19 40 56 55
97 78 96 90 77 70 67 60 52 52 53 57 54 57 61 52 46 50 48 40 36 37 32 29 26 24 19 15 19 25 27 26 22 25 25 26 24 22 19 19 19 25 44 49
93 92 90 88 73 78 90 66 61 62 58 61 56 61 61 63 51 54 48 44 43 38 34 30 26 25 24 24 29 30 31 27 25 32 32 27 29 29 23 19 20 19 32 50
98 94 94 99 61 70 72 68 69 72 69 71 68 65 63 68 69 56 52 47 48 47 38 34 32 32 32 32 36 38 34 29 32 48 46 32 38 29 24 32 34 40 40 44
100 98 96 83 75 78 87 84 96 98 77 91 83 63 73 70 88 87 64 58 60 64 48 52 45 46 44 44 45 45 32 32 33 48 56 50 36 34 33 36 36 34 37 39
82 86 93 88 91 77 99 92 100 100 96 87 94 52 100 100 94 89 79 69 56 76 79 78 64 54 50 48 44 43 38 51 78 62 51 43 40 40 33 35 39 37 34 34
100 98 93 97 88 100 100 88 91 100 94 68 86 79 93 97 100 100 100 100 79 60 98 72 61 56 60 54 48 46 39 75 73 53 48 53 48 46 45 42 38 38 37 38
100 100 100 100 96 100 97 87 94 92 99 100 64 95 74 100 100 94 100 100 89 79 96 78 67 65 49 36 38 42 48 59 58 55 77 74 61 58 60 49 23 9 11 14
100 100 100 100 96 98 100 98 86 100 100 100 80 95 100 100 99 100 100 94 76 85 87 89 86 40 33 43 44 58 45 28 57 76 67 68 78 73 28 14 15 14 11 11
100 99 100 94 100 100 100 62 100 88 96 97 100 95 80 86 90 100 100 87 88 70 94 79 37 36 38 52 58 50 47 59 98 90 94 95 50 27 44 46 38 37 41 42
98 100 100 91 97 99 81 89 100 100 99 100 100 100 100 89 100 100 85 65 68 78 58 44 38 42 40 40 38 98 94 84 88 100 95 29 40 57 72 74 74 90 82 100
98 100 100 100 100 100 97 66 91 100 100 78 87 86 85 86 90 98 86 83 76 72 41 34 20 14 18 25 22 26 43 95 100 97 30 41 66 71 82 97 100 100 100 100
99 100 100 100 100 100 59 69 100 100 89 88 100 85 78 80 82 80 60 52 48 50 44 22 20 16 16 36 100 93 98 100 98 36 42 69 72 82 92 98 100 100 100 100
93 95 98 100 100 90 60 84 100 100 64 83 80 81 70 59 50 44 40 42 58 52 26 17 15 24 44 49 90 90 100 99 53 49 69 90 90 89 98 97 100 100 96 79
98 100 98 99 100 86 79 78 99 94 90 72 57 45 39 28 33 50 47 61 48 31 22 16 26 69 100 100 100 100 99 52 64 64 94 100 82 100 100 100 98 94 77 47
80 95 99 100 100 93 99 78 99 99 98 67 52 33 30 37 59 95 86 57 35 22 17 31 77 100 100 100 100 96 48 82 65 94 100 94 100 100 100 96 89 63 46 45
74 73 70 62 56 61 40 46 81 97 100 92 100 97 83 80 91 95 74 37 22 18 28 82 91 100 100 100 63 37 70 75 84 95 92 100 88 85 92 62 50 49 47 42
100 100 97 90 59 82 59 56 53 47 47 44 46 76 84 84 81 58 42 32 30 39 90 92 98 100 93 44 39 70 72 82 95 92 99 100 100 65 56 45 45 47 44 39
100 100 99 96 100 91 89 98 97 80 70 75 72 79 80 65 58 65 61 43 44 88 100 99 68 40 42 49 57 70 70 94 96 97 99 75 77 73 57 48 42 40 38 34

GFSCGP_500_rhum_135.txt.gz
RH
39 42 47 46 50 51 59 59 61 60 54 54 54 55 54 61 58 45 38 26 24 27 26 26 25 25 23 22 21 20 20 20 20 20 19 19 19 18 17 16 16 15 14 14
88 67 69 75 70 66 67 68 64 61 55 58 50 49 50 53 55 50 44 35 30 25 25 26 25 24 22 21 20 20 21 21 21 18 15 15 14 15 14 14 12 10 10 11
86 73 71 69 65 63 62 64 64 65 55 47 45 46 48 59 59 52 42 35 28 28 24 24 24 22 23 22 21 21 22 19 16 15 14 12 12 10 8 7 6 10 10 11
75 73 68 62 59 66 58 54 56 61 50 51 51 42 52 59 56 46 41 36 32 29 26 26 24 22 22 21 19 17 16 15 15 14 13 11 8 6 6 6 10 13 13 12
66 74 76 73 71 75 67 65 59 55 58 59 59 60 46 54 47 46 42 35 32 32 30 28 24 23 21 20 18 17 16 16 16 16 12 8 6 5 6 9 14 15 13 12
75 84 82 72 78 74 76 73 68 63 63 53 57 65 38 48 45 37 34 33 34 42 40 34 30 26 25 23 21 19 17 17 17 14 11 6 6 11 14 16 17 14 13 12
99 90 96 90 80 86 99 92 86 78 68 50 61 68 43 46 42 35 35 38 55 48 43 39 34 30 30 27 24 21 18 17 15 12 8 8 15 18 20 19 17 16 16 18
90 70 83 88 71 81 93 99 94 99 81 71 71 59 49 48 45 45 43 46 54 59 47 42 38 36 34 29 26 23 20 15 11 9 10 14 21 25 22 26 28 23 23 22
100 81 78 90 94 94 91 80 89 100 97 83 65 68 58 52 50 49 50 54 59 55 51 47 43 39 38 32 25 22 18 16 17 20 21 20 23 24 24 31 31 25 26 23
86 91 77 74 100 80 95 96 100 95 82 81 61 59 57 56 59 66 65 69 68 64 56 51 47 41 42 41 31 28 28 29 26 29 28 26 27 26 28 41 44 33 28 22
81 97 67 89 74 62 78 83 83 95 90 85 74 67 61 65 69 73 80 84 81 75 70 62 53 50 52 50 41 39 40 34 33 37 35 32 29 30 49 53 43 37 30 22
82 86 79 76 97 83 69 74 96 96 78 96 79 68 65 70 83 96 96 83 89 84 90 77 64 59 65 71 58 46 41 38 45 44 38 32 32 56 60 47 40 38 34 25
67 90 81 73 100 83 83 63 82 100 89 67 93 51 71 83 90 94 86 89 97 100 90 84 73 69 86 83 66 58 53 53 56 37 28 35 36 47 43 46 56 57 48 33
90 95 86 75 88 97 96 85 86 100 98 63 71 65 75 98 93 89 75 81 97 99 82 100 97 91 100 99 89 78 74 69 38 28 30 38 39 26 26 48 44 41 48 51
100 100 100 100 100 100 100 100 100 94 99 100 87 95 88 92 100 95 99 100 99 100 98 100 100 100 100 99 85 84 79 58 30 32 48 59 35 58 66 76 82 68 39 19
100 100 100 100 100 100 100 100 99 100 100 100 100 77 88 88 92 100 96 100 94 77 90 100 100 100 90 92 85 74 44 35 34 51 40 28 62 64 87 85 30 26 30 28
100 100 100 100 100 100 100 89 100 100 100 100 100 96 100 100 100 100 98 91 88 74 81 88 100 100 100 91 91 44 33 24 26 29 98 65 79 89 82 26 50 59 58 54
100 100 100 98 100 100 94 100 100 100 100 100 100 94 86 99 100 99 100 100 100 99 97 98 97 100 98 81 32 19 15 11 13 16 62 68 96 87 33 57 73 84 88 100
50 52 82 92 90 91 90 80 82 74 83 77 82 92 100 100 100 100 94 97 95 85 94 99 100 90 57 44 22 22 17 16 19 76 65 91 98 38 59 69 77 78 96 100
58 95 94 70 66 56 51 100 100 100 86 89 93 90 92 97 99 100 100 97 93 90 98 100 89 72 60 34 18 17 18 21 60 100 100 100 55 51 80 78 64 74 93 100
99 95 99 100 98 81 88 94 100 100 76 98 99 95 89 99 100 97 95 95 92 96 81 66 45 52 56 24 19 15 34 57 72 88 100 76 52 88 91 84 83 98 100 98
95 98 100 98 100 87 88 100 100 100 97 84 77 94 95 96 88 89 76 73 64 45 50 44 63 57 28 21 19 28 79 99 100 100 94 65 75 99 85 87 100 100 94 71
33 40 32 48 86 85 78 89 99 94 88 87 90 88 79 75 65 50 42 34 30 37 52 80 59 23 21 18 56 95 100 100 100 86 78 74 100 100 95 97 100 96 71 49
37 29 21 42 33 40 64 87 83 97 100 94 81 99 99 93 100 83 67 85 99 100 94 69 36 22 19 65 100 100 100 100 69 61 79 96 100 100 94 98 90 70 52 50
19 18 31 48 86 75 79 77 66 68 65 58 48 48 63 78 83 72 88 91 91 80 59 38 25 24 32 97 100 100 85 40 63 81 90 100 100 98 89 98 89 58 51 49
17 15 16 21 98 95 100 99 100 100 85 77 97 75 65 49 54 64 86 94 84 87 62 49 45 35 87 97 80 57 56 54 83 83 100 100 100 100 94 57 57 57 53 46